M I D A S
Marine Information and Data Acquisition System
Tripno 2330 of the Zeeleeuw from 2012-06-15 05:49:47 to 2012-06-15 12:38:19
Back to CruiseResearch ActivitiesStationsMapUnderway DataData graphs

EquipmentUnitsComment
TimeDGPSUTC
LatitudeDGPSDM.mWGS84
LongitudeDGPSDM.mWGS84
TemperatureSBE03/SBE38deg celciusITS90
ConductivitySBE21S/mITS90
SalinitySBE21 Practical Salinity Units
ChlorophylAChelsea fluorimeterg/lCalibrated in Aceton
Missing or incorrect values are displayed as -999
Sea surface data collected by the RV Zeeleeuw from 2012-06-15 05:20:34 to 2012-06-15 12:57:41
                                                                                    Next 1000 lines
Time Latitude Longitude Temperature Conductivity Salinity ChlorophylA
2012-06-15 05:20:44 51°13.632 2°56.013 21.6051 0.073246 0.400227 -2.458615
2012-06-15 05:20:49 51°13.632 2°56.013 21.606 0.073246 0.400227 -2.458615
2012-06-15 05:20:54 51°13.632 2°56.013 21.6068 0.073246 0.400227 -2.458615
2012-06-15 05:20:58 51°13.632 2°56.013 21.6072 0.073246 0.400234 -2.458615
2012-06-15 05:21:04 51°13.632 2°56.013 21.6081 0.073349 0.400815 -2.458615
2012-06-15 05:21:09 51°13.632 2°56.013 21.6091 0.073349 0.400815 -2.458615
2012-06-15 05:21:13 51°13.632 2°56.013 21.6102 0.073349 0.400815 -2.458615
2012-06-15 05:21:18 51°13.632 2°56.013 21.6114 0.073349 0.400815 -2.458615
2012-06-15 05:21:23 51°13.632 2°56.013 21.6122 0.073349 0.400815 -2.458615
2012-06-15 05:21:28 51°13.632 2°56.013 21.6122 0.073349 0.400815 -2.458615
2012-06-15 05:21:33 51°13.632 2°56.012 21.6116 0.073349 0.400815 -2.458615
2012-06-15 05:21:38 51°13.632 2°56.013 21.612 0.073452 0.401403 -2.458615
2012-06-15 05:21:44 51°13.632 2°56.013 21.6125 0.073349 0.400822 -2.458615
2012-06-15 05:21:49 51°13.632 2°56.013 21.6111 0.073246 0.400234 -2.458615
2012-06-15 05:21:54 51°13.632 2°56.013 21.6099 0.073246 0.400234 -2.458615
2012-06-15 05:21:58 51°13.632 2°56.013 21.6107 0.073349 0.400815 -2.458615
2012-06-15 05:22:03 51°13.633 2°56.013 21.6118 0.073349 0.400822 -2.458615
2012-06-15 05:22:08 51°13.633 2°56.013 21.6128 0.073349 0.400822 -2.458615
2012-06-15 05:22:13 51°13.632 2°56.013 21.614 0.073349 0.400822 -2.458615
2012-06-15 05:22:18 51°13.632 2°56.013 21.6151 0.073349 0.400822 -2.458615
2012-06-15 05:22:23 51°13.632 2°56.013 21.6161 0.073349 0.400822 -2.458615
2012-06-15 05:22:27 51°13.632 2°56.014 21.6171 0.073349 0.400829 -2.458615
2012-06-15 05:22:33 51°13.632 2°56.014 21.6174 0.073349 0.400829 -2.458615
2012-06-15 05:22:37 51°13.632 2°56.013 21.6158 0.073349 0.400822 -2.458615
2012-06-15 05:22:44 51°13.632 2°56.014 21.6156 0.073452 0.40141 -2.458615
2012-06-15 05:22:48 51°13.632 2°56.014 21.6155 0.073555 0.401991 -2.458615
2012-06-15 05:22:54 51°13.632 2°56.015 21.6149 0.073555 0.401991 -2.458615
2012-06-15 05:22:59 51°13.632 2°56.015 21.6151 0.073555 0.401991 -2.458615
2012-06-15 05:23:04 51°13.632 2°56.015 21.6175 0.073452 0.40141 -2.458615
2012-06-15 05:23:09 51°13.632 2°56.015 21.6183 0.073349 0.400829 -2.458615
2012-06-15 05:23:14 51°13.632 2°56.015 21.6189 0.073349 0.400829 -2.458615
2012-06-15 05:23:19 51°13.632 2°56.016 21.6185 0.073246 0.400248 -2.458615
2012-06-15 05:23:23 51°13.632 2°56.016 21.6196 0.073246 0.400248 -2.458615
2012-06-15 05:23:29 51°13.631 2°56.016 21.6205 0.073349 0.400829 -2.458615
2012-06-15 05:23:34 51°13.631 2°56.016 21.6206 0.073452 0.401417 -2.458615
2012-06-15 05:23:39 51°13.632 2°56.015 21.6213 0.073555 0.401998 -2.458615
2012-06-15 05:23:43 51°13.632 2°56.016 21.6222 0.073555 0.401998 -2.458615
2012-06-15 05:23:49 51°13.632 2°56.016 21.6205 0.073452 0.401417 -2.458615
2012-06-15 05:23:54 51°13.632 2°56.016 21.6207 0.073452 0.401417 -2.458615
2012-06-15 05:23:58 51°13.632 2°56.016 21.6221 0.073452 0.401424 -2.458615
2012-06-15 05:24:03 51°13.632 2°56.015 21.6224 0.073555 0.401998 -2.458615
2012-06-15 05:24:07 51°13.632 2°56.015 21.6226 0.073452 0.401424 -2.458615
2012-06-15 05:24:14 51°13.632 2°56.015 21.6232 0.073555 0.402005 -2.458615
2012-06-15 05:24:19 51°13.632 2°56.016 21.6243 0.073555 0.402005 -2.458615
2012-06-15 05:24:23 51°13.632 2°56.016 21.6253 0.073555 0.402005 -2.458615
2012-06-15 05:24:28 51°13.632 2°56.016 21.6261 0.073555 0.402005 -2.458615
2012-06-15 05:24:34 51°13.632 2°56.016 21.6266 0.073555 0.402005 -2.458615
2012-06-15 05:24:39 51°13.632 2°56.016 21.6251 0.073452 0.401424 -2.458615
2012-06-15 05:24:43 51°13.632 2°56.016 21.6238 0.073452 0.401424 -2.458615
2012-06-15 05:24:49 51°13.632 2°56.015 21.6247 0.073555 0.402005 -2.458615
2012-06-15 05:24:54 51°13.632 2°56.015 21.6249 0.073555 0.402005 -2.458615
2012-06-15 05:24:59 51°13.632 2°56.014 21.6255 0.073555 0.402012 -2.458615
2012-06-15 05:25:03 51°13.632 2°56.015 21.626 0.073555 0.402012 -2.458615
2012-06-15 05:25:08 51°13.632 2°56.015 21.6271 0.073555 0.402012 -2.458615
2012-06-15 05:25:14 51°13.632 2°56.015 21.6282 0.073452 0.401431 -2.458615
2012-06-15 05:25:19 51°13.632 2°56.015 21.63 0.073452 0.401431 -2.458615
2012-06-15 05:25:23 51°13.632 2°56.015 21.6324 0.073452 0.401431 -2.458615
2012-06-15 05:25:28 51°13.632 2°56.015 21.6339 0.073452 0.401431 -2.458615
2012-06-15 05:25:34 51°13.633 2°56.014 21.6344 0.073349 0.40085 -2.458615
2012-06-15 05:25:39 51°13.633 2°56.014 21.6348 0.073452 0.401438 -2.458615
2012-06-15 05:25:43 51°13.632 2°56.014 21.6335 0.073452 0.401431 -2.458615
2012-06-15 05:25:49 51°13.632 2°56.014 21.6329 0.073452 0.401438 -2.458615
2012-06-15 05:25:54 51°13.632 2°56.014 21.6345 0.073452 0.401438 -2.458615
2012-06-15 05:25:59 51°13.632 2°56.014 21.6381 0.073555 0.402019 -2.458615
2012-06-15 05:26:03 51°13.632 2°56.014 21.6408 0.073555 0.402019 -2.458615
2012-06-15 05:26:08 51°13.632 2°56.014 21.6429 0.073452 0.401438 -2.458615
2012-06-15 05:26:13 51°13.632 2°56.014 21.6456 0.073555 0.402019 -2.458615
2012-06-15 05:26:18 51°13.632 2°56.015 21.6467 0.073555 0.402019 -2.458615
2012-06-15 05:26:23 51°13.632 2°56.014 21.6457 0.073555 0.402019 -2.458615
2012-06-15 05:26:28 51°13.632 2°56.014 21.6452 0.073555 0.402026 -2.458615
2012-06-15 05:26:34 51°13.632 2°56.014 21.6463 0.073555 0.402026 -2.458615
2012-06-15 05:26:39 51°13.632 2°56.014 21.6469 0.073658 0.402607 -2.458615
2012-06-15 05:26:43 51°13.632 2°56.014 21.646 0.073555 0.402033 -2.458615
2012-06-15 05:26:48 51°13.632 2°56.014 21.6464 0.073555 0.402033 -2.458615
2012-06-15 05:26:53 51°13.632 2°56.014 21.647 0.073555 0.402033 -2.458615
2012-06-15 05:26:58 51°13.632 2°56.014 21.6465 0.073555 0.402026 -2.458615
2012-06-15 05:27:03 51°13.632 2°56.015 21.6457 0.073658 0.402615 -2.458615
2012-06-15 05:27:09 51°13.632 2°56.015 21.6458 0.073658 0.402615 -2.458615
2012-06-15 05:27:14 51°13.632 2°56.014 21.6461 0.073555 0.402033 -2.458615
2012-06-15 05:27:18 51°13.632 2°56.014 21.6457 0.073452 0.401452 -2.458615
2012-06-15 05:27:23 51°13.632 2°56.015 21.6461 0.073452 0.401452 -2.458615
2012-06-15 05:27:28 51°13.632 2°56.014 21.6457 0.073555 0.402033 -2.458615
2012-06-15 05:27:34 51°13.632 2°56.015 21.6461 0.073555 0.402033 -2.458615
2012-06-15 05:27:39 51°13.632 2°56.014 21.6465 0.073658 0.402615 -2.458615
2012-06-15 05:27:43 51°13.632 2°56.014 21.6481 0.073555 0.402041 -2.458615
2012-06-15 05:27:48 51°13.632 2°56.015 21.6484 0.073658 0.402622 -2.458615
2012-06-15 05:27:53 51°13.632 2°56.014 21.6477 0.073658 0.402622 -2.458615
2012-06-15 05:27:59 51°13.632 2°56.015 21.6479 0.073555 0.402041 -2.458615
2012-06-15 05:28:03 51°13.632 2°56.015 21.6487 0.073555 0.402041 -2.458615
2012-06-15 05:28:08 51°13.632 2°56.014 21.6489 0.073658 0.402622 -2.458615
2012-06-15 05:28:14 51°13.632 2°56.015 21.6499 0.073658 0.402622 -2.458615
2012-06-15 05:28:19 51°13.632 2°56.015 21.6495 0.073555 0.402041 -2.458615
2012-06-15 05:28:23 51°13.632 2°56.015 21.6503 0.073555 0.402041 -2.458615
2012-06-15 05:28:28 51°13.631 2°56.015 21.6514 0.073658 0.402629 -2.458615
2012-06-15 05:28:34 51°13.632 2°56.014 21.6513 0.073555 0.402048 -2.458615
2012-06-15 05:28:38 51°13.632 2°56.014 21.6506 0.073555 0.402048 -2.458615
2012-06-15 05:28:43 51°13.632 2°56.014 21.6499 0.073555 0.402048 -2.458615
2012-06-15 05:28:48 51°13.632 2°56.014 21.6509 0.073555 0.402048 -2.458615
2012-06-15 05:28:54 51°13.631 2°56.014 21.6512 0.073555 0.402048 -2.458615
2012-06-15 05:28:58 51°13.631 2°56.014 21.6524 0.073555 0.402048 -2.458615
2012-06-15 05:29:03 51°13.631 2°56.014 21.6525 0.073555 0.402048 -2.458615
2012-06-15 05:29:09 51°13.631 2°56.014 21.653 0.073555 0.402055 -2.458615
2012-06-15 05:29:14 51°13.632 2°56.015 21.6536 0.073555 0.402055 -2.458615
2012-06-15 05:29:19 51°13.632 2°56.015 21.6539 0.073555 0.402055 -2.458615
2012-06-15 05:29:23 51°13.631 2°56.015 21.6539 0.073555 0.402055 -2.458615
2012-06-15 05:29:29 51°13.631 2°56.015 21.6537 0.073658 0.402636 -2.458615
2012-06-15 05:29:34 51°13.631 2°56.015 21.6536 0.073658 0.402636 -2.458615
2012-06-15 05:29:39 51°13.632 2°56.015 21.6533 0.073555 0.402062 -2.458615
2012-06-15 05:29:43 51°13.632 2°56.014 21.6537 0.073658 0.402643 -2.458615
2012-06-15 05:29:48 51°13.632 2°56.015 21.6536 0.073658 0.402643 -2.458615
2012-06-15 05:29:54 51°13.632 2°56.015 21.6538 0.073658 0.402643 -2.458615
2012-06-15 05:29:59 51°13.631 2°56.015 21.6527 0.073555 0.402062 -2.458615
2012-06-15 05:30:03 51°13.632 2°56.015 21.6533 0.073658 0.402643 -2.458615
2012-06-15 05:30:08 51°13.632 2°56.015 21.653 0.073658 0.402643 -2.458615
2012-06-15 05:30:13 51°13.632 2°56.015 21.6534 0.07376 0.403224 -2.458615
2012-06-15 05:30:19 51°13.632 2°56.015 21.6533 0.073658 0.402643 -2.458615
2012-06-15 05:30:23 51°13.632 2°56.015 21.6545 0.073658 0.402643 -2.458615
2012-06-15 05:30:28 51°13.632 2°56.015 21.6545 0.073658 0.40265 -2.458615
2012-06-15 05:30:34 51°13.632 2°56.015 21.6557 0.073658 0.40265 -2.458615
2012-06-15 05:30:38 51°13.631 2°56.015 21.6549 0.073658 0.40265 -2.458615
2012-06-15 05:30:43 51°13.632 2°56.015 21.6538 0.073658 0.40265 -2.458615
2012-06-15 05:30:48 51°13.632 2°56.015 21.6537 0.07376 0.403231 -2.458615
2012-06-15 05:30:53 51°13.632 2°56.015 21.6537 0.07376 0.403231 -2.458615
2012-06-15 05:30:58 51°13.632 2°56.015 21.6532 0.073658 0.402657 -2.458615
2012-06-15 05:31:03 51°13.632 2°56.015 21.654 0.073555 0.402069 -2.458615
2012-06-15 05:31:08 51°13.632 2°56.015 21.6536 0.073658 0.402657 -2.458615
2012-06-15 05:31:13 51°13.632 2°56.015 21.6544 0.073658 0.402657 -2.458615
2012-06-15 05:31:18 51°13.632 2°56.015 21.655 0.07376 0.403238 -2.458615
2012-06-15 05:31:23 51°13.632 2°56.015 21.6559 0.07376 0.403238 -2.458615
2012-06-15 05:31:27 51°13.632 2°56.015 21.6559 0.073658 0.402664 -2.458615
2012-06-15 05:31:32 51°13.632 2°56.015 21.6563 0.073658 0.402657 -2.458615
2012-06-15 05:31:37 51°13.632 2°56.015 21.6575 0.073658 0.402657 -2.458615
2012-06-15 05:31:42 51°13.632 2°56.015 21.6586 0.073658 0.402664 -2.458615
2012-06-15 05:31:47 51°13.632 2°56.015 21.6598 0.073658 0.402664 -2.458615
2012-06-15 05:31:52 51°13.632 2°56.015 21.6609 0.073658 0.402664 -2.458615
2012-06-15 05:31:57 51°13.632 2°56.015 21.6617 0.073658 0.402664 -2.458615
2012-06-15 05:32:03 51°13.632 2°56.015 21.6629 0.073658 0.402664 -2.458615
2012-06-15 05:32:08 51°13.632 2°56.015 21.6636 0.073658 0.402671 -2.458615
2012-06-15 05:32:13 51°13.632 2°56.015 21.6625 0.073658 0.402664 -2.458615
2012-06-15 05:32:18 51°13.632 2°56.015 21.662 0.073658 0.402671 -2.458615
2012-06-15 05:32:23 51°13.632 2°56.015 21.6616 0.073658 0.402671 -2.458615
2012-06-15 05:32:28 51°13.632 2°56.015 21.6609 0.073658 0.402671 -2.458615
2012-06-15 05:32:33 51°13.632 2°56.015 21.6597 0.073555 0.40209 -2.458615
2012-06-15 05:32:38 51°13.632 2°56.015 21.6602 0.073555 0.40209 -2.458615
2012-06-15 05:32:43 51°13.632 2°56.015 21.6595 0.073555 0.40209 -2.458615
2012-06-15 05:32:48 51°13.632 2°56.015 21.6609 0.073658 0.402671 -2.458615
2012-06-15 05:32:54 51°13.632 2°56.015 21.6624 0.073658 0.402671 -2.458615
2012-06-15 05:32:58 51°13.632 2°56.015 21.6636 0.073658 0.402679 -2.458615
2012-06-15 05:33:03 51°13.632 2°56.015 21.6639 0.073555 0.40209 -2.458615
2012-06-15 05:33:09 51°13.632 2°56.015 21.6646 0.073555 0.402097 -2.458615
2012-06-15 05:33:13 51°13.632 2°56.015 21.6652 0.073555 0.402097 -2.458615
2012-06-15 05:33:19 51°13.632 2°56.015 21.6654 0.073555 0.402097 -2.458615
2012-06-15 05:33:23 51°13.632 2°56.014 21.6664 0.073555 0.402097 -2.458615
2012-06-15 05:33:28 51°13.632 2°56.014 21.6675 0.073555 0.402097 -2.458615
2012-06-15 05:33:34 51°13.632 2°56.014 21.6697 0.073658 0.402679 -2.458615
2012-06-15 05:33:39 51°13.632 2°56.014 21.6691 0.073658 0.402679 -2.458615
2012-06-15 05:33:43 51°13.632 2°56.014 21.6706 0.073658 0.402679 -2.458615
2012-06-15 05:33:48 51°13.632 2°56.014 21.6709 0.073658 0.402686 -2.458615
2012-06-15 05:33:54 51°13.632 2°56.014 21.6704 0.073658 0.402686 -2.458615
2012-06-15 05:33:58 51°13.632 2°56.014 21.6699 0.073555 0.402105 -2.458615
2012-06-15 05:34:03 51°13.632 2°56.015 21.671 0.073658 0.402686 -2.458615
2012-06-15 05:34:07 51°13.632 2°56.014 21.673 0.073658 0.402686 -2.458615
2012-06-15 05:34:13 51°13.632 2°56.015 21.6735 0.073658 0.402686 -2.458615
2012-06-15 05:34:18 51°13.632 2°56.015 21.6756 0.073555 0.402112 -2.458615
2012-06-15 05:34:23 51°13.632 2°56.015 21.6768 0.073555 0.402112 -2.458615
2012-06-15 05:34:27 51°13.632 2°56.015 21.6767 0.073555 0.402112 -2.458615
2012-06-15 05:34:32 51°13.632 2°56.015 21.6767 0.073555 0.402112 -2.458615
2012-06-15 05:34:37 51°13.632 2°56.015 21.6763 0.07376 0.403274 -2.458615
2012-06-15 05:34:42 51°13.632 2°56.014 21.6777 0.07376 0.403274 -2.458615
2012-06-15 05:34:47 51°13.632 2°56.015 21.6786 0.073658 0.402693 -2.458615
2012-06-15 05:34:52 51°13.632 2°56.015 21.6796 0.073658 0.402693 -2.458615
2012-06-15 05:34:57 51°13.632 2°56.015 21.6788 0.073658 0.402693 -2.458615
2012-06-15 05:35:02 51°13.632 2°56.015 21.68 0.073555 0.402119 -2.458615
2012-06-15 05:35:07 51°13.632 2°56.015 21.6803 0.073555 0.402119 -2.458615
2012-06-15 05:35:11 51°13.632 2°56.015 21.6807 0.073658 0.4027 -2.458615
2012-06-15 05:35:16 51°13.632 2°56.015 21.6801 0.073555 0.402119 -2.458615
2012-06-15 05:35:22 51°13.632 2°56.015 21.6798 0.073555 0.402119 -2.458615
2012-06-15 05:35:26 51°13.631 2°56.016 21.6806 0.073555 0.402119 -2.458615
2012-06-15 05:35:31 51°13.631 2°56.016 21.6809 0.073555 0.402119 -2.458615
2012-06-15 05:35:37 51°13.631 2°56.016 21.6799 0.073658 0.4027 -2.458615
2012-06-15 05:35:43 51°13.632 2°56.016 21.679 0.073658 0.402707 -2.458615
2012-06-15 05:35:48 51°13.632 2°56.016 21.6797 0.073452 0.401545 -2.458615
2012-06-15 05:35:54 51°13.632 2°56.015 21.6817 0.073452 0.401545 -2.458615
2012-06-15 05:35:58 51°13.632 2°56.015 21.682 0.073349 0.400963 -2.458615
2012-06-15 05:36:03 51°13.632 2°56.015 21.6837 0.073555 0.402126 -2.458615
2012-06-15 05:36:08 51°13.632 2°56.015 21.6846 0.073555 0.402126 -2.458615
2012-06-15 05:36:13 51°13.632 2°56.015 21.6846 0.073349 0.400963 -2.458615
2012-06-15 05:36:18 51°13.632 2°56.015 21.6842 0.073349 0.400963 -2.458615
2012-06-15 05:36:23 51°13.632 2°56.015 21.6832 0.073349 0.400963 -2.458615
2012-06-15 05:36:28 51°13.632 2°56.015 21.684 0.073246 0.400382 -2.458615
2012-06-15 05:36:33 51°13.632 2°56.015 21.6841 0.073349 0.400963 -2.458615
2012-06-15 05:36:38 51°13.633 2°56.015 21.6844 0.073452 0.401552 -2.458615
2012-06-15 05:36:43 51°13.632 2°56.015 21.6861 0.073452 0.401552 -2.458615
2012-06-15 05:36:48 51°13.633 2°56.014 21.6872 0.073452 0.401552 -2.458615
2012-06-15 05:36:53 51°13.633 2°56.014 21.6885 0.073452 0.401552 -2.458615
2012-06-15 05:36:59 51°13.633 2°56.014 21.6898 0.073452 0.401552 -2.458615
2012-06-15 05:37:03 51°13.633 2°56.014 21.6907 0.073349 0.400971 -2.458615
2012-06-15 05:37:08 51°13.633 2°56.014 21.692 0.073452 0.401559 -2.458615
2012-06-15 05:37:13 51°13.632 2°56.014 21.6926 0.073452 0.401559 -2.458615
2012-06-15 05:37:18 51°13.633 2°56.014 21.6936 0.073349 0.400978 -2.458615
2012-06-15 05:37:23 51°13.633 2°56.014 21.694 0.073349 0.400978 -2.458615
2012-06-15 05:37:28 51°13.633 2°56.015 21.6926 0.073452 0.401566 -2.458615
2012-06-15 05:37:33 51°13.632 2°56.015 21.6917 0.073246 0.400397 -2.458615
2012-06-15 05:37:38 51°13.633 2°56.014 21.6924 0.073349 0.400985 -2.458615
2012-06-15 05:37:43 51°13.633 2°56.013 21.6937 0.073349 0.400985 -2.458615
2012-06-15 05:37:48 51°13.632 2°56.013 21.6963 0.073555 0.402147 -2.458615
2012-06-15 05:37:53 51°13.632 2°56.014 21.6975 0.073555 0.402147 -2.458615
2012-06-15 05:37:58 51°13.633 2°56.014 21.6995 0.07376 0.403317 -2.458615
2012-06-15 05:38:03 51°13.632 2°56.014 21.7108 0.073349 0.400992 -2.458615
2012-06-15 05:38:08 51°13.632 2°56.014 21.7159 0.073658 0.402736 -2.458615
2012-06-15 05:38:12 51°13.632 2°56.014 21.7243 0.07376 0.403324 -2.458615
2012-06-15 05:38:17 51°13.632 2°56.014 21.726 0.07376 0.403324 -2.458615
2012-06-15 05:38:22 51°13.632 2°56.014 21.7258 0.07376 0.403324 -2.458615
2012-06-15 05:38:27 51°13.632 2°56.014 21.7245 0.073658 0.402743 -2.458615
2012-06-15 05:38:32 51°13.632 2°56.014 21.724 0.07376 0.403331 -2.458615
2012-06-15 05:38:38 51°13.632 2°56.014 21.7239 0.07376 0.403324 -2.458615
2012-06-15 05:38:43 51°13.632 2°56.014 21.7218 0.073658 0.40275 -2.458615
2012-06-15 05:38:48 51°13.632 2°56.014 21.7174 0.073658 0.402743 -2.458615
2012-06-15 05:38:54 51°13.631 2°56.014 21.7123 0.073658 0.402743 -2.458615
2012-06-15 05:38:58 51°13.631 2°56.014 21.7112 0.073658 0.40275 -2.458615
2012-06-15 05:39:04 51°13.631 2°56.014 21.7081 0.073555 0.402168 -2.458615
2012-06-15 05:39:08 51°13.631 2°56.014 21.6951 0.072938 0.398682 -2.458615
2012-06-15 05:39:13 51°13.631 2°56.013 21.6369 0.072321 0.395189 -2.458615
2012-06-15 05:39:19 51°13.631 2°56.012 21.6095 0.071087 0.38821 -2.458615
2012-06-15 05:39:24 51°13.632 2°56.01 21.6357 0.071087 0.38821 -2.458615
2012-06-15 05:39:28 51°13.632 2°56.008 21.5504 0.072835 0.398087 -2.458615
2012-06-15 05:39:33 51°13.633 2°56.005 21.541 0.070779 0.386477 -2.458615
2012-06-15 05:39:39 51°13.633 2°55.999 21.5953 0.072012 0.393454 -2.458615
2012-06-15 05:39:44 51°13.634 2°55.994 21.6357 0.070779 0.386504 -2.458615
2012-06-15 05:39:48 51°13.635 2°55.99 21.6762 0.071087 0.388245 -2.458615
2012-06-15 05:39:54 51°13.637 2°55.982 21.6813 0.071087 0.388245 -2.458615
2012-06-15 05:39:59 51°13.638 2°55.974 21.6756 0.073452 0.401609 -2.458615
2012-06-15 05:40:04 51°13.64 2°55.967 21.6877 0.072629 0.39696 -2.458615
2012-06-15 05:40:08 51°13.641 2°55.961 21.6866 0.072321 0.395217 -2.458615
2012-06-15 05:40:14 51°13.643 2°55.952 21.6735 0.071601 0.391146 -2.458615
2012-06-15 05:40:19 51°13.644 2°55.943 21.7151 0.072629 0.39696 -2.458615
2012-06-15 05:40:24 51°13.646 2°55.935 21.7051 0.072629 0.39696 -2.458615
2012-06-15 05:40:28 51°13.648 2°55.929 21.6896 0.07191 0.392902 -2.458615
2012-06-15 05:40:34 51°13.65 2°55.919 21.7108 0.07119 0.388839 -2.458615
2012-06-15 05:40:38 51°13.651 2°55.912 21.7137 0.070676 0.385938 -2.458615
2012-06-15 05:40:43 51°13.653 2°55.904 21.7219 0.073143 0.399886 -2.458615
2012-06-15 05:40:48 51°13.655 2°55.896 21.7199 0.073966 0.404537 -2.458615
2012-06-15 05:40:53 51°13.657 2°55.888 21.7254 0.073966 0.404537 -2.458615
2012-06-15 05:40:58 51°13.659 2°55.88 21.7193 0.073452 0.401637 -2.458615
2012-06-15 05:41:03 51°13.662 2°55.872 21.6926 0.07376 0.403381 -2.458615
2012-06-15 05:41:08 51°13.664 2°55.863 21.7119 0.072938 0.398724 -2.458615
2012-06-15 05:41:13 51°13.666 2°55.855 21.7142 0.073863 0.403962 -2.458615
2012-06-15 05:41:18 51°13.669 2°55.848 21.6977 0.072012 0.393503 -2.458615
2012-06-15 05:41:23 51°13.672 2°55.84 21.7083 0.072012 0.393503 -2.458615
2012-06-15 05:41:28 51°13.675 2°55.833 21.7162 0.073246 0.400481 -2.458615
2012-06-15 05:41:33 51°13.679 2°55.826 21.7048 0.073143 0.3999 -2.458615
2012-06-15 05:41:39 51°13.684 2°55.818 21.7067 0.072527 0.396407 -2.458615
2012-06-15 05:41:43 51°13.688 2°55.812 21.6982 0.072527 0.3964 -2.458615
2012-06-15 05:41:48 51°13.693 2°55.805 21.7279 0.074274 0.406296 -2.458615
2012-06-15 05:41:53 51°13.697 2°55.798 21.7502 0.074274 0.406296 -2.458615
2012-06-15 05:41:57 51°13.701 2°55.794 21.7406 0.073966 0.404558 -2.458615
2012-06-15 05:42:04 51°13.707 2°55.785 21.7151 0.073143 0.399914 -2.458615
2012-06-15 05:42:09 51°13.711 2°55.78 21.7007 0.073143 0.399914 -2.458615
2012-06-15 05:42:14 51°13.716 2°55.774 21.6953 0.073452 0.401658 -2.458615
2012-06-15 05:42:18 51°13.719 2°55.77 21.6964 0.073041 0.399333 -2.458615
2012-06-15 05:42:24 51°13.725 2°55.763 21.6956 0.073041 0.399333 -2.458615
2012-06-15 05:42:29 51°13.729 2°55.758 21.6903 0.072835 0.398171 -2.458615
2012-06-15 05:42:34 51°13.733 2°55.753 21.6805 0.073246 0.400496 -2.458615
2012-06-15 05:42:38 51°13.737 2°55.748 21.6827 0.072012 0.393524 -2.458615
2012-06-15 05:42:43 51°13.741 2°55.742 21.6673 0.071704 0.391775 -2.458615
2012-06-15 05:42:49 51°13.747 2°55.735 21.6582 0.071601 0.391195 -2.458615
2012-06-15 05:42:53 51°13.751 2°55.73 21.677 0.071601 0.391195 -2.458615
2012-06-15 05:42:58 51°13.756 2°55.724 21.6771 0.072938 0.398745 -2.458615
2012-06-15 05:43:03 51°13.761 2°55.718 21.6823 0.07191 0.392936 -2.458615
2012-06-15 05:43:08 51°13.766 2°55.712 21.6877 0.071396 0.390041 -2.458615
2012-06-15 05:43:14 51°13.772 2°55.704 21.6942 0.07191 0.392943 -2.458615
2012-06-15 05:43:19 51°13.777 2°55.698 21.7081 0.072629 0.397009 -2.458615
2012-06-15 05:43:23 51°13.782 2°55.693 21.7108 0.072629 0.397009 -2.458615
2012-06-15 05:43:29 51°13.788 2°55.686 21.7137 0.072732 0.397597 -2.458615
2012-06-15 05:43:34 51°13.794 2°55.68 21.7205 0.073041 0.39934 -2.458615
2012-06-15 05:43:39 51°13.8 2°55.674 21.7166 0.073452 0.401665 -2.458615
2012-06-15 05:43:43 51°13.804 2°55.67 21.7037 0.072218 0.394692 -2.458615
2012-06-15 05:43:48 51°13.811 2°55.665 21.706 0.07119 0.38888 -2.458615
2012-06-15 05:43:54 51°13.818 2°55.658 21.7279 0.07119 0.38888 -2.458615
2012-06-15 05:43:59 51°13.824 2°55.653 21.7043 0.073041 0.399354 -2.458615
2012-06-15 05:44:03 51°13.829 2°55.649 21.7097 0.072527 0.396442 -2.458615
2012-06-15 05:44:08 51°13.835 2°55.644 21.6799 0.073863 0.404005 -2.458615
2012-06-15 05:44:13 51°13.841 2°55.639 21.6699 0.071807 0.392383 -2.458615
2012-06-15 05:44:18 51°13.847 2°55.634 21.6564 0.072218 0.394706 -2.458615
2012-06-15 05:44:23 51°13.853 2°55.629 21.709 0.072218 0.394706 -2.458615
2012-06-15 05:44:28 51°13.858 2°55.625 21.727 0.073246 0.400524 -2.458615
2012-06-15 05:44:33 51°13.864 2°55.62 21.7379 0.070676 0.386013 -2.458615
2012-06-15 05:44:38 51°13.87 2°55.616 21.7197 0.072424 0.395896 -2.458615
2012-06-15 05:44:43 51°13.875 2°55.613 21.7059 0.07191 0.392999 -2.458615
2012-06-15 05:44:48 51°13.88 2°55.61 21.7037 0.072218 0.394748 -2.458615
2012-06-15 05:44:54 51°13.887 2°55.606 21.7299 0.072218 0.394748 -2.458615
2012-06-15 05:44:58 51°13.891 2°55.604 21.7108 0.072218 0.394755 -2.458615
2012-06-15 05:45:03 51°13.896 2°55.602 21.7184 0.07376 0.403467 -2.458615
2012-06-15 05:45:08 51°13.901 2°55.6 21.7312 0.073863 0.404048 -2.458615
2012-06-15 05:45:14 51°13.907 2°55.599 21.6987 0.072012 0.39358 -2.458615
2012-06-15 05:45:19 51°13.912 2°55.598 21.7329 0.073863 0.404041 -2.458615
2012-06-15 05:45:23 51°13.915 2°55.598 21.728 0.073863 0.404041 -2.458615
2012-06-15 05:45:28 51°13.92 2°55.598 21.7357 0.070984 0.387767 -2.458615
2012-06-15 05:45:33 51°13.925 2°55.598 21.7421 0.072527 0.396477 -2.458615
2012-06-15 05:45:38 51°13.93 2°55.599 21.7386 0.07191 0.392999 -2.458615
2012-06-15 05:45:43 51°13.934 2°55.6 21.7323 0.072527 0.396477 -2.458615
2012-06-15 05:45:47 51°13.937 2°55.601 21.7436 0.07191 0.392992 -2.458615
2012-06-15 05:45:54 51°13.944 2°55.603 21.743 0.07191 0.392992 -2.458615
2012-06-15 05:45:59 51°13.948 2°55.605 21.7401 0.072527 0.396477 -2.458615
2012-06-15 05:46:04 51°13.952 2°55.607 21.7528 0.071601 0.39125 -2.458615
2012-06-15 05:46:08 51°13.954 2°55.608 21.7559 0.073349 0.401134 -2.458615
2012-06-15 05:46:13 51°13.958 2°55.611 21.7587 0.072732 0.397646 -2.458615
2012-06-15 05:46:19 51°13.962 2°55.614 21.7788 0.070059 0.382546 -2.458615
2012-06-15 05:46:24 51°13.964 2°55.615 21.7778 0.070059 0.382546 -2.458615
2012-06-15 05:46:28 51°13.965 2°55.616 21.7704 0.070162 0.383126 -2.458615
2012-06-15 05:46:33 51°13.967 2°55.617 21.764 0.07047 0.384866 -2.458615
2012-06-15 05:46:38 51°13.968 2°55.617 21.7709 0.070265 0.383713 -2.458615
2012-06-15 05:46:44 51°13.969 2°55.617 21.7977 0.06975 0.380807 -2.458615
2012-06-15 05:46:48 51°13.97 2°55.616 21.8348 0.06389 0.34784 -2.458615
2012-06-15 05:46:53 51°13.969 2°55.613 21.7954 0.06389 0.34784 -2.458615
2012-06-15 05:46:58 51°13.969 2°55.609 21.6155 0.06245 0.339767 -2.458615
2012-06-15 05:47:03 51°13.969 2°55.604 21.533 0.064507 0.351309 -2.458615
2012-06-15 05:47:08 51°13.971 2°55.597 21.3679 0.064712 0.352469 -2.458615
2012-06-15 05:47:14 51°13.972 2°55.588 21.3251 0.068414 0.373287 -2.458615
2012-06-15 05:47:18 51°13.974 2°55.582 21.4495 0.080546 0.44197 -2.458615
2012-06-15 05:47:23 51°13.978 2°55.573 21.5605 0.080546 0.44197 -2.458615
2012-06-15 05:47:28 51°13.982 2°55.565 21.5573 0.083528 0.458986 -2.458615
2012-06-15 05:47:33 51°13.988 2°55.557 21.5692 0.082911 0.455497 -2.458615
2012-06-15 05:47:39 51°13.995 2°55.548 21.5838 0.08178 0.44909 -2.458615
2012-06-15 05:47:43 51°14 2°55.541 21.6074 0.085585 0.470827 -2.458615
2012-06-15 05:47:48 51°14.008 2°55.534 21.6096 0.082603 0.453837 -2.458615
2012-06-15 05:47:53 51°14.015 2°55.526 21.5992 0.082603 0.453837 -2.458615
2012-06-15 05:47:59 51°14.024 2°55.517 21.5984 0.08178 0.44913 -2.458615
2012-06-15 05:48:04 51°14.032 2°55.509 21.5898 0.082603 0.453797 -2.458615
2012-06-15 05:48:09 51°14.041 2°55.5 21.6075 0.07849 0.430418 -2.458615
2012-06-15 05:48:13 51°14.048 2°55.493 21.5887 0.075303 0.412327 -2.458615
2012-06-15 05:48:19 51°14.06 2°55.484 21.5912 0.073555 0.402425 -2.458615
2012-06-15 05:48:24 51°14.07 2°55.475 21.6004 0.073555 0.402425 -2.458615
2012-06-15 05:48:29 51°14.08 2°55.466 21.6166 0.076742 0.420478 -2.458615
2012-06-15 05:48:33 51°14.088 2°55.458 21.555 0.066974 0.365261 -2.458615
2012-06-15 05:48:38 51°14.098 2°55.449 21.585 0.068003 0.371023 -2.458615
2012-06-15 05:48:44 51°14.111 2°55.437 21.5798 0.066769 0.364065 -2.458615
2012-06-15 05:48:49 51°14.121 2°55.427 21.5897 0.065227 0.355382 -2.458615
2012-06-15 05:48:53 51°14.131 2°55.419 21.5836 0.065227 0.355382 -2.458615
2012-06-15 05:48:58 51°14.142 2°55.41 21.563 0.065021 0.354227 -2.458615
2012-06-15 05:49:04 51°14.155 2°55.397 21.5475 0.065843 0.358849 -2.458615
2012-06-15 05:49:09 51°14.167 2°55.386 21.5498 0.063273 0.344409 -2.458615
2012-06-15 05:49:13 51°14.176 2°55.378 21.4865 0.063376 0.34498 -2.458615
2012-06-15 05:49:18 51°14.188 2°55.367 21.4713 0.067694 0.36926 -2.458615
2012-06-15 05:49:24 51°14.202 2°55.356 21.4993 0.067694 0.36926 -2.458615
2012-06-15 05:49:29 51°14.214 2°55.346 21.5205 0.06646 0.36235 -2.458615
2012-06-15 05:49:33 51°14.223 2°55.337 21.4792 0.065535 0.357166 -2.458615
2012-06-15 05:49:38 51°14.235 2°55.326 21.5193 0.066872 0.364695 -2.458615
2012-06-15 05:49:43 51°14.246 2°55.315 21.5549 0.068517 0.373972 -2.458615
2012-06-15 05:49:48 51°14.258 2°55.304 21.537 0.065227 0.355463 -2.458615
2012-06-15 05:49:53 51°14.27 2°55.293 21.5133 0.065227 0.355463 -2.458615
2012-06-15 05:49:58 51°14.283 2°55.281 21.5811 0.067386 0.367602 -2.458615
2012-06-15 05:50:03 51°14.295 2°55.27 21.5951 0.072527 0.39661 -2.458615
2012-06-15 05:50:08 51°14.307 2°55.258 21.492 0.064404 0.350861 -2.458615
2012-06-15 05:50:13 51°14.319 2°55.246 21.4185 0.067694 0.369371 -2.458615
2012-06-15 05:50:18 51°14.331 2°55.234 21.5043 0.066049 0.360125 -2.458615
2012-06-15 05:50:23 51°14.345 2°55.222 21.5061 0.066049 0.360125 -2.458615
2012-06-15 05:50:28 51°14.359 2°55.211 21.563 0.066666 0.363596 -2.458615
2012-06-15 05:50:33 51°14.371 2°55.199 21.5136 0.065946 0.359541 -2.458615
2012-06-15 05:50:38 51°14.384 2°55.185 21.4643 0.065432 0.35665 -2.458615
2012-06-15 05:50:43 51°14.396 2°55.172 21.4393 0.06461 0.352016 -2.458615
2012-06-15 05:50:48 51°14.409 2°55.16 21.4983 0.075405 0.412938 -2.458615
2012-06-15 05:50:53 51°14.423 2°55.147 21.4404 0.075405 0.412938 -2.458615
2012-06-15 05:50:58 51°14.436 2°55.133 21.4543 0.071601 0.391457 -2.458615
2012-06-15 05:51:03 51°14.449 2°55.119 21.4563 0.068722 0.375223 -2.458615
2012-06-15 05:51:08 51°14.462 2°55.105 21.4375 0.065227 0.35552 -2.458615
2012-06-15 05:51:13 51°14.475 2°55.092 21.4907 0.071293 0.389708 -2.458615
2012-06-15 05:51:18 51°14.489 2°55.078 21.4635 0.067694 0.369423 -2.458615
2012-06-15 05:51:23 51°14.502 2°55.064 21.4063 0.067694 0.369423 -2.458615
2012-06-15 05:51:28 51°14.515 2°55.051 21.4831 0.071704 0.392038 -2.458615
2012-06-15 05:51:34 51°14.531 2°55.034 21.5104 0.069236 0.378089 -2.458615
2012-06-15 05:51:37 51°14.538 2°55.025 21.3929 0.066666 0.363609 -2.458615
2012-06-15 05:51:43 51°14.553 2°55.007 21.2973 0.064815 0.353202 -2.458615
2012-06-15 05:51:47 51°14.563 2°54.996 21.2172 0.079518 0.43629 -2.458615
2012-06-15 05:51:52 51°14.577 2°54.985 21.1806 0.079518 0.43629 -2.458615
2012-06-15 05:51:57 51°14.591 2°54.977 21.2951 0.113552 0.632066 -2.458615
2012-06-15 05:52:02 51°14.606 2°54.968 21.3299 0.099877 0.552928 -2.458615
2012-06-15 05:52:07 51°14.62 2°54.958 21.297 0.089389 0.492676 -2.458615
2012-06-15 05:52:12 51°14.634 2°54.949 21.3879 0.068619 0.374743 -2.458615
2012-06-15 05:52:17 51°14.65 2°54.939 21.3329 0.088669 0.488846 -2.458615
2012-06-15 05:52:22 51°14.664 2°54.93 21.346 0.088669 0.488846 -2.458615
2012-06-15 05:52:26 51°14.676 2°54.922 21.3881 0.086613 0.477205 -2.458615
2012-06-15 05:52:32 51°14.694 2°54.91 21.3987 0.076639 0.420401 -2.458615
2012-06-15 05:52:37 51°14.709 2°54.899 21.3389 0.071293 0.389832 -2.458615
2012-06-15 05:52:42 51°14.723 2°54.887 21.3649 0.077976 0.427576 -2.458615
2012-06-15 05:52:46 51°14.733 2°54.877 21.3476 0.077462 0.424688 -2.458615
2012-06-15 05:52:51 51°14.748 2°54.865 21.3729 0.077462 0.424688 -2.458615
2012-06-15 05:52:56 51°14.762 2°54.85 21.3513 0.066872 0.36483 -2.458615
2012-06-15 05:53:01 51°14.775 2°54.834 21.3304 0.066666 0.363666 -2.458615
2012-06-15 05:53:06 51°14.787 2°54.817 21.3377 0.070265 0.384011 -2.458615
2012-06-15 05:53:10 51°14.797 2°54.803 21.36 0.066769 0.364354 -2.458615
2012-06-15 05:53:15 51°14.809 2°54.785 21.3455 0.071087 0.38878 -2.458615
2012-06-15 05:53:20 51°14.822 2°54.767 21.3283 0.071087 0.38878 -2.458615
2012-06-15 05:53:25 51°14.834 2°54.749 21.3363 0.07592 0.416405 -2.458615
2012-06-15 05:53:30 51°14.846 2°54.73 21.3645 0.074583 0.408931 -2.458615
2012-06-15 05:53:35 51°14.858 2°54.71 21.3826 0.06975 0.381629 -2.458615
2012-06-15 05:53:40 51°14.869 2°54.69 21.3796 0.065741 0.359042 -2.458615
2012-06-15 05:53:45 51°14.879 2°54.669 21.3524 0.07376 0.404555 -2.458615
2012-06-15 05:53:50 51°14.89 2°54.649 21.2998 0.07376 0.404555 -2.458615
2012-06-15 05:53:55 51°14.9 2°54.628 21.3311 0.068928 0.377336 -2.458615
2012-06-15 05:54:00 51°14.91 2°54.606 21.3478 0.069339 0.3795 -2.458615
2012-06-15 05:54:05 51°14.921 2°54.585 21.3429 0.067797 0.370617 -2.458615
2012-06-15 05:54:10 51°14.931 2°54.563 21.2963 0.074686 0.409478 -2.458615
2012-06-15 05:54:15 51°14.941 2°54.541 21.2636 0.074172 0.406556 -2.458615
2012-06-15 05:54:20 51°14.95 2°54.519 21.2612 0.074172 0.406556 -2.458615
2012-06-15 05:54:25 51°14.959 2°54.497 21.3091 0.073863 0.405001 -2.458615
2012-06-15 05:54:30 51°14.969 2°54.474 21.3048 0.081883 0.450491 -2.458615
2012-06-15 05:54:35 51°14.979 2°54.453 21.3197 0.071601 0.392095 -2.458615
2012-06-15 05:54:40 51°14.989 2°54.432 21.3158 0.070984 0.38844 -2.458615
2012-06-15 05:54:45 51°14.999 2°54.411 21.3051 0.068928 0.376775 -2.458615
2012-06-15 05:54:50 51°15.009 2°54.389 21.3351 0.068928 0.376775 -2.458615
2012-06-15 05:54:55 51°15.021 2°54.369 21.3324 0.074789 0.409916 -2.458615
2012-06-15 05:55:01 51°15.034 2°54.346 21.3331 0.080341 0.4416 -2.458615
2012-06-15 05:55:05 51°15.043 2°54.33 21.2938 0.075714 0.415518 -2.458615
2012-06-15 05:55:10 51°15.054 2°54.311 21.3096 0.076536 0.420377 -2.458615
2012-06-15 05:55:15 51°15.065 2°54.293 21.3304 0.077667 0.426809 -2.458615
2012-06-15 05:55:20 51°15.078 2°54.275 21.3421 0.077667 0.426809 -2.458615
2012-06-15 05:55:25 51°15.089 2°54.257 21.3376 0.071087 0.389483 -2.458615
2012-06-15 05:55:30 51°15.101 2°54.239 21.3596 0.069853 0.38246 -2.458615
2012-06-15 05:55:34 51°15.111 2°54.224 21.3423 0.06646 0.363329 -2.458615
2012-06-15 05:55:40 51°15.124 2°54.201 21.3133 0.071704 0.392969 -2.458615
2012-06-15 05:55:45 51°15.136 2°54.182 21.3042 0.068208 0.373328 -2.458615
2012-06-15 05:55:50 51°15.148 2°54.164 21.3431 0.068208 0.373328 -2.458615
2012-06-15 05:55:54 51°15.158 2°54.149 21.29 0.072012 0.394892 -2.458615
2012-06-15 05:56:00 51°15.172 2°54.128 21.3432 0.075097 0.412543 -2.458615
2012-06-15 05:56:05 51°15.184 2°54.11 21.2851 0.073966 0.405952 -2.458615
2012-06-15 05:56:10 51°15.197 2°54.093 21.3384 0.073349 0.402479 -2.458615
2012-06-15 05:56:15 51°15.21 2°54.077 21.2734 0.069134 0.378666 -2.458615
2012-06-15 05:56:20 51°15.223 2°54.061 21.2497 0.069134 0.378666 -2.458615
2012-06-15 05:56:25 51°15.235 2°54.044 21.2653 0.065535 0.358308 -2.458615
2012-06-15 05:56:30 51°15.249 2°54.029 21.2776 0.077256 0.425044 -2.458615
2012-06-15 05:56:34 51°15.259 2°54.017 21.2845 0.080444 0.443005 -2.458615
2012-06-15 05:56:40 51°15.276 2°54 21.2868 0.073246 0.401803 -2.458615
2012-06-15 05:56:45 51°15.289 2°53.985 21.3249 0.074686 0.410016 -2.458615
2012-06-15 05:56:50 51°15.303 2°53.971 21.332 0.074686 0.410016 -2.458615
2012-06-15 05:56:54 51°15.315 2°53.96 21.3341 0.075097 0.412506 -2.458615
2012-06-15 05:57:00 51°15.332 2°53.944 21.2907 0.066974 0.366424 -2.458615
2012-06-15 05:57:05 51°15.346 2°53.93 21.3005 0.080032 0.440612 -2.458615
2012-06-15 05:57:10 51°15.36 2°53.917 21.3141 0.079415 0.437437 -2.458615
2012-06-15 05:57:14 51°15.372 2°53.907 21.3312 0.070573 0.387012 -2.458615
2012-06-15 05:57:20 51°15.389 2°53.892 21.3052 0.070573 0.387012 -2.458615
2012-06-15 05:57:25 51°15.404 2°53.879 21.3546 0.070881 0.388587 -2.458615
2012-06-15 05:57:30 51°15.418 2°53.866 21.3806 0.077256 0.424832 -2.458615
2012-06-15 05:57:34 51°15.43 2°53.856 21.3183 0.065227 0.356676 -2.458615
2012-06-15 05:57:40 51°15.447 2°53.839 21.3251 0.071807 0.39381 -2.458615
2012-06-15 05:57:45 51°15.461 2°53.826 21.3538 0.066974 0.366411 -2.458615
2012-06-15 05:57:50 51°15.475 2°53.813 21.3447 0.066974 0.366411 -2.458615
2012-06-15 05:57:54 51°15.487 2°53.802 21.3371 0.078901 0.434032 -2.458615
2012-06-15 05:58:00 51°15.504 2°53.786 21.339 0.074069 0.406716 -2.458615
2012-06-15 05:58:05 51°15.518 2°53.772 21.3659 0.065124 0.356046 -2.458615
2012-06-15 05:58:11 51°15.534 2°53.755 21.2985 0.070367 0.385621 -2.458615
2012-06-15 05:58:14 51°15.543 2°53.747 21.2773 0.121264 0.679285 -2.458615
2012-06-15 05:58:19 51°15.558 2°53.733 21.431 0.121264 0.679285 -2.458615
2012-06-15 05:58:24 51°15.572 2°53.72 21.1963 0.074172 0.407546 -2.458615
2012-06-15 05:58:29 51°15.585 2°53.703 21.418 0.304123 1.785856 -2.458615
2012-06-15 05:58:35 51°15.602 2°53.687 21.222 0.088669 0.490288 -2.458615
2012-06-15 05:58:40 51°15.615 2°53.67 21.3278 0.130108 0.730811 -2.458615
2012-06-15 05:58:45 51°15.628 2°53.656 21.2955 0.085173 0.47001 -2.458615
2012-06-15 05:58:50 51°15.642 2°53.64 21.2827 0.085173 0.47001 -2.458615
2012-06-15 05:58:55 51°15.656 2°53.626 21.2659 0.069545 0.380912 -2.458615
2012-06-15 05:59:00 51°15.669 2°53.61 21.2944 0.085585 0.472339 -2.458615
2012-06-15 05:59:05 51°15.683 2°53.596 21.3136 0.072321 0.397028 -2.458615
2012-06-15 05:59:11 51°15.7 2°53.579 21.3128 0.082192 0.453243 -2.458615
2012-06-15 05:59:15 51°15.712 2°53.568 21.3286 0.080546 0.444114 -2.458615
2012-06-15 05:59:20 51°15.726 2°53.555 21.3156 0.080546 0.444114 -2.458615
2012-06-15 05:59:25 51°15.74 2°53.541 21.3136 0.067489 0.369864 -2.458615
2012-06-15 05:59:30 51°15.754 2°53.528 21.3022 0.070162 0.384996 -2.458615
2012-06-15 05:59:35 51°15.769 2°53.514 21.3239 0.077051 0.424198 -2.458615
2012-06-15 05:59:39 51°15.78 2°53.503 21.3199 0.084351 0.466052 -2.458615
2012-06-15 05:59:45 51°15.797 2°53.487 21.3223 0.070367 0.386451 -2.458615
2012-06-15 05:59:50 51°15.811 2°53.473 21.3183 0.070367 0.386451 -2.458615
2012-06-15 05:59:55 51°15.825 2°53.459 21.3164 0.083014 0.458585 -2.458615
2012-06-15 06:00:00 51°15.839 2°53.445 21.3243 0.073966 0.406906 -2.458615
2012-06-15 06:00:06 51°15.856 2°53.43 21.3307 0.074583 0.410425 -2.458615
2012-06-15 06:00:11 51°15.871 2°53.417 21.3181 0.072527 0.39855 -2.458615
2012-06-15 06:00:16 51°15.885 2°53.405 21.3406 0.07191 0.394905 -2.458615
2012-06-15 06:00:21 51°15.899 2°53.393 21.3299 0.07191 0.394905 -2.458615
2012-06-15 06:00:26 51°15.914 2°53.38 21.3291 0.070059 0.384366 -2.458615
2012-06-15 06:00:31 51°15.929 2°53.369 21.3504 0.073349 0.40316 -2.458615
2012-06-15 06:00:35 51°15.941 2°53.36 21.3705 0.068414 0.375248 -2.458615
2012-06-15 06:00:40 51°15.955 2°53.348 21.3289 0.072115 0.396319 -2.458615
2012-06-15 06:00:45 51°15.969 2°53.334 21.3072 0.0679 0.372469 -2.458615
2012-06-15 06:00:50 51°15.984 2°53.321 21.3197 0.0679 0.372469 -2.458615
2012-06-15 06:00:55 51°15.998 2°53.308 21.3343 0.073041 0.401693 -2.458615
2012-06-15 06:01:00 51°16.013 2°53.295 21.2985 0.07119 0.391113 -2.458615
2012-06-15 06:01:05 51°16.027 2°53.282 21.3109 0.080341 0.443193 -2.458615
2012-06-15 06:01:11 51°16.045 2°53.267 21.3079 0.082089 0.453238 -2.458615
2012-06-15 06:01:15 51°16.056 2°53.257 21.3055 0.069853 0.383459 -2.458615
2012-06-15 06:01:20 51°16.071 2°53.244 21.3147 0.069853 0.383459 -2.458615
2012-06-15 06:01:25 51°16.086 2°53.232 21.3366 0.072424 0.397909 -2.458615
2012-06-15 06:01:30 51°16.1 2°53.219 21.3383 0.06862 0.376232 -2.458615
2012-06-15 06:01:35 51°16.115 2°53.207 21.3232 0.06862 0.376239 -2.458615
2012-06-15 06:01:40 51°16.129 2°53.193 21.3505 0.070162 0.384983 -2.458615
2012-06-15 06:01:45 51°16.144 2°53.181 21.314 0.074583 0.410125 -2.458615
2012-06-15 06:01:50 51°16.158 2°53.168 21.2954 0.074583 0.410125 -2.458615
2012-06-15 06:01:55 51°16.173 2°53.155 21.3476 0.075097 0.413138 -2.458615
2012-06-15 06:01:59 51°16.185 2°53.145 21.3557 0.079621 0.439065 -2.458615
2012-06-15 06:02:05 51°16.202 2°53.129 21.3225 0.074377 0.409094 -2.458615
2012-06-15 06:02:10 51°16.216 2°53.115 21.3051 0.075611 0.416043 -2.458615
2012-06-15 06:02:15 51°16.231 2°53.102 21.3362 0.069031 0.378655 -2.458615
2012-06-15 06:02:20 51°16.246 2°53.089 21.3268 0.069031 0.378655 -2.458615
2012-06-15 06:02:25 51°16.26 2°53.076 21.3459 0.068517 0.375723 -2.458615
2012-06-15 06:02:30 51°16.275 2°53.062 21.3532 0.067591 0.37044 -2.458615
2012-06-15 06:02:35 51°16.289 2°53.048 21.3276 0.066769 0.365749 -2.458615
2012-06-15 06:02:40 51°16.304 2°53.034 21.3259 0.067386 0.369263 -2.458615
2012-06-15 06:02:45 51°16.318 2°53.021 21.3192 0.072115 0.396136 -2.458615
2012-06-15 06:02:50 51°16.332 2°53.007 21.3191 0.072115 0.396136 -2.458615
2012-06-15 06:02:55 51°16.347 2°52.995 21.3509 0.07592 0.417926 -2.458615
2012-06-15 06:02:59 51°16.358 2°52.984 21.3692 0.078696 0.433703 -2.458615
2012-06-15 06:03:05 51°16.375 2°52.968 21.3374 0.065946 0.361152 -2.458615
2012-06-15 06:03:10 51°16.389 2°52.954 21.3383 0.076845 0.422935 -2.458615
2012-06-15 06:03:15 51°16.403 2°52.939 21.3218 0.070573 0.387411 -2.458615
2012-06-15 06:03:19 51°16.413 2°52.928 21.3249 0.070573 0.387411 -2.458615
2012-06-15 06:03:25 51°16.43 2°52.911 21.3242 0.080649 0.444765 -2.458615
2012-06-15 06:03:30 51°16.444 2°52.898 21.3585 0.093399 0.517959 -2.458615
2012-06-15 06:03:35 51°16.458 2°52.885 21.3421 0.072835 0.400217 -2.458615
2012-06-15 06:03:40 51°16.473 2°52.872 21.3592 0.073452 0.403758 -2.458615
2012-06-15 06:03:45 51°16.487 2°52.861 21.3445 0.089389 0.494889 -2.458615
2012-06-15 06:03:50 51°16.502 2°52.849 21.3374 0.089389 0.494889 -2.458615
2012-06-15 06:03:55 51°16.517 2°52.838 21.3328 0.073452 0.403758 -2.458615
2012-06-15 06:04:00 51°16.532 2°52.828 21.3623 0.073452 0.403866 -2.458615
2012-06-15 06:04:05 51°16.547 2°52.818 21.342 0.066666 0.365271 -2.458615
2012-06-15 06:04:10 51°16.562 2°52.807 21.3635 0.067694 0.371015 -2.458615
2012-06-15 06:04:15 51°16.576 2°52.796 21.3436 0.073041 0.401342 -2.458615
2012-06-15 06:04:19 51°16.588 2°52.787 21.3294 0.073041 0.401342 -2.458615
2012-06-15 06:04:25 51°16.606 2°52.773 21.3239 0.071498 0.392655 -2.458615
2012-06-15 06:04:30 51°16.62 2°52.762 21.3265 0.068517 0.37585 -2.458615
2012-06-15 06:04:35 51°16.635 2°52.75 21.333 0.085071 0.470118 -2.458615
2012-06-15 06:04:40 51°16.649 2°52.738 21.3665 0.069442 0.381039 -2.458615
2012-06-15 06:04:45 51°16.663 2°52.727 21.3496 0.06646 0.364096 -2.458615
2012-06-15 06:04:50 51°16.678 2°52.715 21.3609 0.06646 0.364096 -2.458615
2012-06-15 06:04:55 51°16.692 2°52.703 21.3514 0.073863 0.406046 -2.458615
2012-06-15 06:05:00 51°16.706 2°52.692 21.3449 0.065432 0.358248 -2.458615
2012-06-15 06:05:05 51°16.721 2°52.68 21.3445 0.065741 0.359888 -2.458615
2012-06-15 06:05:10 51°16.735 2°52.668 21.3561 0.068105 0.373388 -2.458615
2012-06-15 06:05:15 51°16.75 2°52.657 21.3356 0.061834 0.338028 -2.458615
2012-06-15 06:05:19 51°16.761 2°52.647 21.3352 0.061834 0.338028 -2.458615
2012-06-15 06:05:25 51°16.778 2°52.634 21.3459 0.065124 0.35655 -2.458615
2012-06-15 06:05:30 51°16.792 2°52.622 21.3458 0.067077 0.367747 -2.458615
2012-06-15 06:05:35 51°16.807 2°52.611 21.3548 0.065946 0.361389 -2.458615
2012-06-15 06:05:39 51°16.818 2°52.602 21.3317 0.067283 0.368911 -2.458615
2012-06-15 06:05:44 51°16.833 2°52.591 21.341 0.072527 0.398706 -2.458615
2012-06-15 06:05:50 51°16.85 2°52.578 21.3612 0.072527 0.398706 -2.458615
2012-06-15 06:05:55 51°16.865 2°52.566 21.3498 0.074994 0.412803 -2.458615
2012-06-15 06:05:59 51°16.876 2°52.557 21.3292 0.068311 0.374832 -2.458615
2012-06-15 06:06:05 51°16.893 2°52.544 21.3275 0.072424 0.39805 -2.458615
2012-06-15 06:06:10 51°16.908 2°52.533 21.3405 0.086202 0.476749 -2.458615
2012-06-15 06:06:15 51°16.922 2°52.524 21.3462 0.072012 0.3957 -2.458615
2012-06-15 06:06:19 51°16.934 2°52.516 21.3376 0.072012 0.3957 -2.458615
2012-06-15 06:06:25 51°16.952 2°52.506 21.3547 0.071807 0.394476 -2.458615
2012-06-15 06:06:30 51°16.967 2°52.497 21.3456 0.071498 0.392717 -2.458615
2012-06-15 06:06:35 51°16.982 2°52.49 21.3537 0.082706 0.45681 -2.458615
2012-06-15 06:06:40 51°16.997 2°52.482 21.3489 0.078799 0.43453 -2.458615
2012-06-15 06:06:45 51°17.012 2°52.475 21.3484 0.07191 0.395242 -2.458615
2012-06-15 06:06:50 51°17.028 2°52.468 21.3575 0.07191 0.395242 -2.458615
2012-06-15 06:06:55 51°17.043 2°52.462 21.3683 0.073349 0.403411 -2.458615
2012-06-15 06:07:00 51°17.058 2°52.456 21.3577 0.065124 0.356791 -2.458615
2012-06-15 06:07:05 51°17.074 2°52.45 21.3767 0.065535 0.359115 -2.458615
2012-06-15 06:07:10 51°17.089 2°52.443 21.3383 0.076022 0.418691 -2.458615
2012-06-15 06:07:15 51°17.105 2°52.437 21.3676 0.066358 0.363895 -2.458615
2012-06-15 06:07:19 51°17.117 2°52.433 21.358 0.066358 0.363895 -2.458615
2012-06-15 06:07:25 51°17.136 2°52.426 21.3664 0.065741 0.360373 -2.458615
2012-06-15 06:07:30 51°17.151 2°52.42 21.3594 0.074172 0.408149 -2.458615
2012-06-15 06:07:35 51°17.166 2°52.414 21.3617 0.073555 0.404559 -2.458615
2012-06-15 06:07:39 51°17.179 2°52.41 21.3673 0.065124 0.356696 -2.458615
2012-06-15 06:07:45 51°17.197 2°52.404 21.3622 0.066872 0.366538 -2.458615
2012-06-15 06:07:50 51°17.213 2°52.4 21.3743 0.066872 0.366538 -2.458615
2012-06-15 06:07:55 51°17.229 2°52.396 21.3592 0.069648 0.382198 -2.458615
2012-06-15 06:07:59 51°17.241 2°52.393 21.3507 0.069339 0.380443 -2.458615
2012-06-15 06:08:05 51°17.26 2°52.389 21.3624 0.074069 0.40731 -2.458615
2012-06-15 06:08:10 51°17.276 2°52.386 21.3664 0.066769 0.365898 -2.458615
2012-06-15 06:08:15 51°17.291 2°52.384 21.363 0.06718 0.368231 -2.458615
2012-06-15 06:08:19 51°17.304 2°52.383 21.3676 0.06718 0.368231 -2.458615
2012-06-15 06:08:25 51°17.323 2°52.381 21.3595 0.063581 0.347897 -2.458615
2012-06-15 06:08:30 51°17.339 2°52.38 21.3701 0.083117 0.458968 -2.458615
2012-06-15 06:08:35 51°17.355 2°52.379 21.3623 0.062656 0.342734 -2.458615
2012-06-15 06:08:39 51°17.368 2°52.377 21.3717 0.07993 0.440717 -2.458615
2012-06-15 06:08:45 51°17.386 2°52.376 21.3795 0.068928 0.378281 -2.458615
2012-06-15 06:08:50 51°17.402 2°52.375 21.3505 0.068928 0.378281 -2.458615
2012-06-15 06:08:55 51°17.418 2°52.372 21.3507 0.066358 0.363656 -2.458615
2012-06-15 06:08:59 51°17.43 2°52.371 21.3745 0.080855 0.446299 -2.458615
2012-06-15 06:09:05 51°17.449 2°52.37 21.3614 0.063684 0.348686 -2.458615
2012-06-15 06:09:10 51°17.465 2°52.367 21.3646 0.069134 0.379494 -2.458615
2012-06-15 06:09:15 51°17.481 2°52.366 21.3821 0.076022 0.418638 -2.458615
2012-06-15 06:09:20 51°17.497 2°52.364 21.3787 0.076022 0.418638 -2.458615
2012-06-15 06:09:25 51°17.513 2°52.361 21.3529 0.071396 0.392329 -2.458615
2012-06-15 06:09:30 51°17.529 2°52.359 21.3765 0.074583 0.410417 -2.458615
2012-06-15 06:09:35 51°17.545 2°52.357 21.3773 0.074686 0.410995 -2.458615
2012-06-15 06:09:39 51°17.557 2°52.355 21.4017 0.062965 0.344522 -2.458615
2012-06-15 06:09:45 51°17.576 2°52.352 21.353 0.062759 0.343301 -2.458615
2012-06-15 06:09:50 51°17.592 2°52.349 21.3592 0.062759 0.343301 -2.458615
2012-06-15 06:09:55 51°17.608 2°52.346 21.3745 0.077668 0.427859 -2.458615
2012-06-15 06:09:59 51°17.621 2°52.344 21.3802 0.065946 0.361318 -2.458615
2012-06-15 06:10:05 51°17.64 2°52.341 21.3829 0.066974 0.367107 -2.458615
2012-06-15 06:10:10 51°17.655 2°52.339 21.3652 0.070779 0.388612 -2.458615
2012-06-15 06:10:15 51°17.671 2°52.336 21.3924 0.067797 0.371689 -2.458615
2012-06-15 06:10:19 51°17.684 2°52.334 21.3682 0.067797 0.371689 -2.458615
2012-06-15 06:10:24 51°17.7 2°52.331 21.3987 0.067489 0.369956 -2.458615
2012-06-15 06:10:30 51°17.718 2°52.326 21.3684 0.062348 0.340929 -2.458615
2012-06-15 06:10:35 51°17.733 2°52.321 21.3817 0.067591 0.370604 -2.458615
2012-06-15 06:10:39 51°17.746 2°52.318 21.3657 0.067591 0.37067 -2.458615
2012-06-15 06:10:44 51°17.762 2°52.312 21.3812 0.066049 0.361989 -2.458615
2012-06-15 06:10:50 51°17.78 2°52.306 21.3456 0.066049 0.361989 -2.458615
2012-06-15 06:10:55 51°17.796 2°52.302 21.3894 0.068928 0.378348 -2.458615
2012-06-15 06:10:59 51°17.809 2°52.298 21.3831 0.068414 0.375488 -2.458615
2012-06-15 06:11:05 51°17.827 2°52.293 21.3932 0.067694 0.371298 -2.458615
2012-06-15 06:11:10 51°17.843 2°52.288 21.4025 0.061525 0.336398 -2.458615
2012-06-15 06:11:15 51°17.858 2°52.282 21.3923 0.070367 0.386368 -2.458615
2012-06-15 06:11:19 51°17.871 2°52.277 21.3838 0.070367 0.386368 -2.458615
2012-06-15 06:11:25 51°17.889 2°52.27 21.382 0.063067 0.345053 -2.458615
2012-06-15 06:11:30 51°17.905 2°52.265 21.3824 0.068928 0.378153 -2.458615
2012-06-15 06:11:35 51°17.921 2°52.261 21.3896 0.065021 0.356039 -2.458615
2012-06-15 06:11:40 51°17.937 2°52.256 21.3755 0.068825 0.377483 -2.458615
2012-06-15 06:11:45 51°17.952 2°52.252 21.3877 0.068208 0.37395 -2.458615
2012-06-15 06:11:50 51°17.968 2°52.248 21.3917 0.068208 0.37395 -2.458615
2012-06-15 06:11:55 51°17.984 2°52.245 21.408 0.074172 0.4078 -2.458615
2012-06-15 06:11:59 51°17.997 2°52.242 21.39 0.067694 0.371087 -2.458615
2012-06-15 06:12:05 51°18.016 2°52.236 21.3749 0.065021 0.355976 -2.458615
2012-06-15 06:12:10 51°18.032 2°52.231 21.3567 0.084248 0.465346 -2.458615
2012-06-15 06:12:15 51°18.047 2°52.226 21.3913 0.065432 0.358254 -2.458615
2012-06-15 06:12:19 51°18.06 2°52.222 21.3828 0.065432 0.358254 -2.458615
2012-06-15 06:12:24 51°18.076 2°52.216 21.4037 0.07047 0.386745 -2.458615
2012-06-15 06:12:30 51°18.094 2°52.209 21.3503 0.063684 0.348365 -2.458615
2012-06-15 06:12:35 51°18.11 2°52.203 21.3838 0.070779 0.388515 -2.458615
2012-06-15 06:12:39 51°18.122 2°52.199 21.3823 0.073555 0.404343 -2.458615
2012-06-15 06:12:45 51°18.141 2°52.192 21.4094 0.068208 0.374096 -2.458615
2012-06-15 06:12:50 51°18.157 2°52.187 21.3824 0.068208 0.374096 -2.458615
2012-06-15 06:12:55 51°18.173 2°52.181 21.3663 0.066563 0.364761 -2.458615
2012-06-15 06:12:59 51°18.185 2°52.176 21.378 0.072835 0.400317 -2.458615
2012-06-15 06:13:05 51°18.204 2°52.17 21.3547 0.073863 0.406155 -2.458615
2012-06-15 06:13:10 51°18.22 2°52.165 21.3704 0.094119 0.522248 -2.458615
2012-06-15 06:13:15 51°18.236 2°52.161 21.3893 0.073246 0.402704 -2.458615
2012-06-15 06:13:20 51°18.252 2°52.157 21.3877 0.073246 0.402704 -2.458615
2012-06-15 06:13:24 51°18.264 2°52.154 21.3808 0.090212 0.499753 -2.458615
2012-06-15 06:13:30 51°18.283 2°52.149 21.3608 0.078284 0.431394 -2.458615
2012-06-15 06:13:35 51°18.3 2°52.146 21.3864 0.073041 0.401457 -2.458615
2012-06-15 06:13:40 51°18.315 2°52.142 21.3897 0.073452 0.40378 -2.458615
2012-06-15 06:13:45 51°18.332 2°52.139 21.3858 0.068208 0.37405 -2.458615
2012-06-15 06:13:50 51°18.348 2°52.135 21.3717 0.068208 0.37405 -2.458615
2012-06-15 06:13:55 51°18.364 2°52.133 21.3969 0.078387 0.432228 -2.458615
2012-06-15 06:13:59 51°18.377 2°52.131 21.3975 0.072218 0.397122 -2.458615
2012-06-15 06:14:05 51°18.396 2°52.127 21.4087 0.069339 0.380863 -2.458615
2012-06-15 06:14:10 51°18.412 2°52.124 21.4113 0.069236 0.380252 -2.458615
2012-06-15 06:14:15 51°18.428 2°52.12 21.4128 0.069339 0.38072 -2.458615
2012-06-15 06:14:19 51°18.441 2°52.117 21.3876 0.069339 0.38072 -2.458615
2012-06-15 06:14:25 51°18.46 2°52.112 21.3978 0.068105 0.373647 -2.458615
2012-06-15 06:14:30 51°18.476 2°52.107 21.388 0.062245 0.340471 -2.458615
2012-06-15 06:14:35 51°18.492 2°52.101 21.4076 0.073143 0.402156 -2.458615
2012-06-15 06:14:39 51°18.504 2°52.096 21.4168 0.066974 0.367191 -2.458615
2012-06-15 06:14:45 51°18.523 2°52.089 21.3738 0.085893 0.474953 -2.458615
2012-06-15 06:14:50 51°18.538 2°52.084 21.3869 0.085893 0.474953 -2.458615
2012-06-15 06:14:55 51°18.554 2°52.078 21.3895 0.076536 0.421373 -2.458615
2012-06-15 06:14:59 51°18.567 2°52.074 21.3944 0.082706 0.45663 -2.458615
2012-06-15 06:15:05 51°18.585 2°52.069 21.3963 0.076434 0.420825 -2.458615
2012-06-15 06:15:10 51°18.602 2°52.065 21.3956 0.06862 0.376419 -2.458615
2012-06-15 06:15:15 51°18.618 2°52.061 21.3918 0.065535 0.35893 -2.458615
2012-06-15 06:15:19 51°18.63 2°52.058 21.388 0.065535 0.35893 -2.458615
2012-06-15 06:15:24 51°18.647 2°52.055 21.4021 0.069956 0.383919 -2.458615
2012-06-15 06:15:30 51°18.666 2°52.052 21.4036 0.072629 0.399077 -2.458615
2012-06-15 06:15:35 51°18.682 2°52.049 21.4012 0.069956 0.383919 -2.458615
2012-06-15 06:15:39 51°18.695 2°52.046 21.3897 0.070059 0.38453 -2.458615
2012-06-15 06:15:45 51°18.714 2°52.043 21.4065 0.067591 0.37063 -2.458615
2012-06-15 06:15:50 51°18.731 2°52.041 21.4109 0.067591 0.37063 -2.458615
2012-06-15 06:15:55 51°18.747 2°52.038 21.4196 0.069031 0.37883 -2.458615
2012-06-15 06:15:59 51°18.76 2°52.035 21.4032 0.067283 0.368963 -2.458615
2012-06-15 06:16:05 51°18.78 2°52.032 21.4123 0.068517 0.37599 -2.458615
2012-06-15 06:16:10 51°18.796 2°52.029 21.4117 0.065432 0.358515 -2.458615
2012-06-15 06:16:15 51°18.812 2°52.025 21.4169 0.080341 0.44324 -2.458615
2012-06-15 06:16:19 51°18.825 2°52.023 21.4058 0.080341 0.44324 -2.458615
2012-06-15 06:16:25 51°18.844 2°52.019 21.4029 0.074172 0.408025 -2.458615
2012-06-15 06:16:30 51°18.86 2°52.016 21.4149 0.067591 0.370624 -2.458615
2012-06-15 06:16:35 51°18.877 2°52.012 21.4216 0.06646 0.364199 -2.458615
2012-06-15 06:16:39 51°18.89 2°52.009 21.4085 0.062965 0.344442 -2.458615
2012-06-15 06:16:45 51°18.909 2°52.002 21.4037 0.070059 0.38455 -2.458615
2012-06-15 06:16:50 51°18.925 2°51.998 21.4093 0.070059 0.38455 -2.458615
2012-06-15 06:16:55 51°18.941 2°51.992 21.4078 0.069853 0.383391 -2.458615
2012-06-15 06:16:59 51°18.954 2°51.987 21.41 0.069236 0.379941 -2.458615
2012-06-15 06:17:05 51°18.973 2°51.981 21.3986 0.076742 0.422621 -2.458615
2012-06-15 06:17:10 51°18.989 2°51.975 21.3945 0.077976 0.429688 -2.458615
2012-06-15 06:17:15 51°19.005 2°51.969 21.3842 0.073041 0.401535 -2.458615
2012-06-15 06:17:19 51°19.018 2°51.964 21.4093 0.073041 0.401535 -2.458615
2012-06-15 06:17:24 51°19.034 2°51.958 21.4182 0.086921 0.480888 -2.458615
2012-06-15 06:17:30 51°19.053 2°51.951 21.3932 0.074377 0.409218 -2.458615
2012-06-15 06:17:35 51°19.068 2°51.945 21.4153 0.072218 0.396988 -2.458615
2012-06-15 06:17:39 51°19.081 2°51.941 21.4095 0.070573 0.387521 -2.458615
2012-06-15 06:17:45 51°19.1 2°51.935 21.4126 0.072527 0.398585 -2.458615
2012-06-15 06:17:50 51°19.116 2°51.929 21.4247 0.072527 0.398585 -2.458615
2012-06-15 06:17:55 51°19.132 2°51.923 21.3993 0.076948 0.423672 -2.458615
2012-06-15 06:17:59 51°19.145 2°51.919 21.413 0.074583 0.410213 -2.458615
2012-06-15 06:18:05 51°19.164 2°51.913 21.4216 0.080135 0.441765 -2.458615
2012-06-15 06:18:10 51°19.181 2°51.908 21.4152 0.068414 0.375055 -2.458615
2012-06-15 06:18:15 51°19.197 2°51.903 21.419 0.074274 0.408254 -2.458615
2012-06-15 06:18:19 51°19.209 2°51.898 21.4135 0.074274 0.408254 -2.458615
2012-06-15 06:18:25 51°19.229 2°51.893 21.4118 0.092679 0.513665 -2.458615
2012-06-15 06:18:30 51°19.245 2°51.888 21.4143 0.078799 0.434096 -2.458615
2012-06-15 06:18:35 51°19.261 2°51.884 21.4175 0.074377 0.408875 -2.458615
2012-06-15 06:18:39 51°19.274 2°51.881 21.4119 0.07376 0.405426 -2.458615
2012-06-15 06:18:45 51°19.293 2°51.877 21.4201 0.070779 0.388501 -2.458615
2012-06-15 06:18:50 51°19.309 2°51.873 21.3991 0.070779 0.388501 -2.458615
2012-06-15 06:18:55 51°19.326 2°51.87 21.4297 0.076228 0.419459 -2.458615
2012-06-15 06:18:59 51°19.338 2°51.867 21.4253 0.071087 0.390203 -2.458615
2012-06-15 06:19:05 51°19.358 2°51.862 21.4193 0.064507 0.352993 -2.458615
2012-06-15 06:19:10 51°19.374 2°51.857 21.4268 0.065227 0.357049 -2.458615
2012-06-15 06:19:15 51°19.389 2°51.852 21.4258 0.066974 0.366931 -2.458615
2012-06-15 06:19:19 51°19.402 2°51.847 21.3994 0.066974 0.366931 -2.458615
2012-06-15 06:19:24 51°19.418 2°51.841 21.4026 0.072629 0.399027 -2.458615
2012-06-15 06:19:30 51°19.438 2°51.834 21.4048 0.080135 0.441852 -2.458615
2012-06-15 06:19:35 51°19.454 2°51.829 21.4117 0.07119 0.390946 -2.458615
2012-06-15 06:19:39 51°19.467 2°51.825 21.3994 0.075303 0.414264 -2.458615
2012-06-15 06:19:45 51°19.486 2°51.819 21.4021 0.070265 0.385703 -2.458615
2012-06-15 06:19:50 51°19.502 2°51.815 21.427 0.070265 0.385703 -2.458615
2012-06-15 06:19:55 51°19.518 2°51.812 21.4182 0.093502 0.5187 -2.458615
2012-06-15 06:19:59 51°19.531 2°51.808 21.4122 0.078901 0.434884 -2.458615
2012-06-15 06:20:05 51°19.55 2°51.803 21.4322 0.077976 0.42955 -2.458615
2012-06-15 06:20:10 51°19.566 2°51.799 21.433 0.075303 0.414316 -2.458615
2012-06-15 06:20:15 51°19.582 2°51.795 21.4303 0.072527 0.398422 -2.458615
2012-06-15 06:20:19 51°19.595 2°51.791 21.4396 0.072527 0.398422 -2.458615
2012-06-15 06:20:25 51°19.614 2°51.785 21.4335 0.080855 0.446036 -2.458615
2012-06-15 06:20:30 51°19.63 2°51.78 21.415 0.07119 0.391071 -2.458615
2012-06-15 06:20:35 51°19.646 2°51.774 21.4184 0.06718 0.368237 -2.458615
2012-06-15 06:20:40 51°19.662 2°51.768 21.4317 0.095353 0.529318 -2.458615
2012-06-15 06:20:45 51°19.678 2°51.764 21.4352 0.088464 0.489677 -2.458615
2012-06-15 06:20:50 51°19.694 2°51.758 21.3998 0.088464 0.489677 -2.458615
2012-06-15 06:20:55 51°19.71 2°51.753 21.4244 0.082706 0.456573 -2.458615
2012-06-15 06:20:59 51°19.723 2°51.75 21.4278 0.078079 0.430159 -2.458615
2012-06-15 06:21:05 51°19.742 2°51.744 21.4098 0.067283 0.368714 -2.458615
2012-06-15 06:21:10 51°19.759 2°51.739 21.4087 0.07592 0.41774 -2.458615
2012-06-15 06:21:15 51°19.775 2°51.735 21.4182 0.076331 0.420292 -2.458615
2012-06-15 06:21:19 51°19.788 2°51.731 21.4256 0.076331 0.420292 -2.458615
2012-06-15 06:21:25 51°19.807 2°51.727 21.4329 0.083014 0.458593 -2.458615
2012-06-15 06:21:30 51°19.823 2°51.723 21.4295 0.079415 0.437921 -2.458615
2012-06-15 06:21:35 51°19.839 2°51.721 21.4323 0.068928 0.37816 -2.458615
2012-06-15 06:21:39 51°19.852 2°51.718 21.4211 0.077359 0.426123 -2.458615
2012-06-15 06:21:44 51°19.869 2°51.716 21.4273 0.065124 0.356651 -2.458615
2012-06-15 06:21:50 51°19.888 2°51.712 21.4319 0.065124 0.356651 -2.458615
2012-06-15 06:21:55 51°19.904 2°51.709 21.4348 0.073349 0.403275 -2.458615
2012-06-15 06:21:59 51°19.917 2°51.707 21.4189 0.066563 0.364865 -2.458615
2012-06-15 06:22:05 51°19.936 2°51.704 21.4151 0.080238 0.442653 -2.458615
2012-06-15 06:22:10 51°19.953 2°51.701 21.435 0.073041 0.401535 -2.458615
2012-06-15 06:22:15 51°19.969 2°51.698 21.417 0.090726 0.502711 -2.458615
2012-06-15 06:22:19 51°19.982 2°51.696 21.4266 0.090726 0.502711 -2.458615
2012-06-15 06:22:25 51°20.002 2°51.694 21.4354 0.079621 0.439112 -2.458615
2012-06-15 06:22:30 51°20.018 2°51.692 21.4218 0.071498 0.392766 -2.458615
2012-06-15 06:22:35 51°20.035 2°51.69 21.4329 0.077153 0.42495 -2.458615
2012-06-15 06:22:40 51°20.051 2°51.689 21.4393 0.074274 0.408567 -2.458615
2012-06-15 06:22:45 51°20.067 2°51.687 21.4415 0.068003 0.372959 -2.458615
2012-06-15 06:22:50 51°20.083 2°51.685 21.4283 0.068003 0.372959 -2.458615
2012-06-15 06:22:55 51°20.1 2°51.683 21.433 0.070265 0.385806 -2.458615
2012-06-15 06:22:59 51°20.113 2°51.681 21.4388 0.072424 0.398185 -2.458615
2012-06-15 06:23:05 51°20.132 2°51.679 21.4265 0.068311 0.374825 -2.458615
2012-06-15 06:23:10 51°20.149 2°51.677 21.4142 0.084659 0.46797 -2.458615
2012-06-15 06:23:15 51°20.165 2°51.675 21.4366 0.091343 0.506425 -2.458615
2012-06-15 06:23:19 51°20.178 2°51.675 21.4335 0.091343 0.506425 -2.458615
2012-06-15 06:23:25 51°20.198 2°51.674 21.4188 0.0752 0.413841 -2.458615
2012-06-15 06:23:30 51°20.214 2°51.673 21.4223 0.077873 0.429094 -2.458615
2012-06-15 06:23:35 51°20.231 2°51.673 21.4207 0.100494 0.559211 -2.458615
2012-06-15 06:23:39 51°20.243 2°51.672 21.4488 0.086818 0.480453 -2.458615
2012-06-15 06:23:44 51°20.26 2°51.673 21.4324 0.071087 0.390543 -2.458615
2012-06-15 06:23:50 51°20.28 2°51.672 21.4471 0.071087 0.390543 -2.458615
2012-06-15 06:23:55 51°20.296 2°51.672 21.4534 0.073143 0.402163 -2.458615
2012-06-15 06:23:59 51°20.309 2°51.671 21.4472 0.069545 0.381724 -2.458615
2012-06-15 06:24:04 51°20.325 2°51.669 21.4512 0.068928 0.378227 -2.458615
2012-06-15 06:24:10 51°20.345 2°51.667 21.4552 0.070676 0.388174 -2.458615
2012-06-15 06:24:15 51°20.361 2°51.665 21.4351 0.066769 0.36608 -2.458615
2012-06-15 06:24:19 51°20.374 2°51.663 21.4343 0.066769 0.36608 -2.458615
2012-06-15 06:24:24 51°20.391 2°51.66 21.4286 0.067489 0.370147 -2.458615
2012-06-15 06:24:30 51°20.41 2°51.657 21.4146 0.068825 0.377725 -2.458615
2012-06-15 06:24:35 51°20.426 2°51.654 21.4353 0.08723 0.482876 -2.458615
2012-06-15 06:24:39 51°20.439 2°51.653 21.44 0.080855 0.446347 -2.458615
2012-06-15 06:24:45 51°20.459 2°51.652 21.446 0.070265 0.385902 -2.458615
2012-06-15 06:24:50 51°20.475 2°51.652 21.4376 0.070265 0.385902 -2.458615
2012-06-15 06:24:55 51°20.492 2°51.651 21.4411 0.072012 0.395784 -2.458615
2012-06-15 06:24:59 51°20.505 2°51.651 21.4465 0.066152 0.362552 -2.458615
2012-06-15 06:25:05 51°20.525 2°51.649 21.4467 0.075303 0.414501 -2.458615
2012-06-15 06:25:10 51°20.541 2°51.648 21.4541 0.064198 0.351545 -2.458615
2012-06-15 06:25:15 51°20.557 2°51.646 21.4446 0.076022 0.418646 -2.458615
2012-06-15 06:25:19 51°20.57 2°51.644 21.4497 0.076022 0.418646 -2.458615
2012-06-15 06:25:25 51°20.59 2°51.642 21.4542 0.069134 0.379413 -2.458615
2012-06-15 06:25:30 51°20.606 2°51.64 21.4492 0.075714 0.416933 -2.458615
2012-06-15 06:25:35 51°20.623 2°51.639 21.456 0.074275 0.408895 -2.458615
2012-06-15 06:25:39 51°20.636 2°51.638 21.4579 0.075097 0.413617 -2.458615
2012-06-15 06:25:44 51°20.652 2°51.637 21.4431 0.069956 0.384295 -2.458615
2012-06-15 06:25:50 51°20.672 2°51.635 21.4602 0.069956 0.384295 -2.458615
2012-06-15 06:25:55 51°20.688 2°51.633 21.4572 0.06862 0.376667 -2.458615
2012-06-15 06:25:59 51°20.701 2°51.632 21.467 0.069442 0.381324 -2.458615
2012-06-15 06:26:04 51°20.717 2°51.629 21.4654 0.066666 0.365518 -2.458615
2012-06-15 06:26:10 51°20.737 2°51.625 21.4526 0.078387 0.432112 -2.458615
2012-06-15 06:26:15 51°20.753 2°51.623 21.4475 0.064507 0.353268 -2.458615
2012-06-15 06:26:19 51°20.766 2°51.62 21.4651 0.064507 0.353268 -2.458615
2012-06-15 06:26:25 51°20.785 2°51.615 21.4568 0.098335 0.546697 -2.458615
2012-06-15 06:26:30 51°20.801 2°51.612 21.4449 0.071601 0.393406 -2.458615
2012-06-15 06:26:35 51°20.817 2°51.607 21.4542 0.077051 0.42444 -2.458615
2012-06-15 06:26:39 51°20.83 2°51.605 21.4492 0.072012 0.395813 -2.458615
2012-06-15 06:26:45 51°20.85 2°51.6 21.4367 0.080341 0.443304 -2.458615
2012-06-15 06:26:50 51°20.866 2°51.596 21.4547 0.080341 0.443304 -2.458615
2012-06-15 06:26:55 51°20.882 2°51.593 21.447 0.084968 0.469857 -2.458615
2012-06-15 06:26:59 51°20.895 2°51.59 21.4577 0.078284 0.431548 -2.458615
2012-06-15 06:27:05 51°20.915 2°51.586 21.4394 0.079313 0.437326 -2.458615
2012-06-15 06:27:10 51°20.931 2°51.583 21.4406 0.087333 0.483259 -2.458615
2012-06-15 06:27:15 51°20.947 2°51.58 21.4433 0.084454 0.46675 -2.458615
2012-06-15 06:27:20 51°20.963 2°51.577 21.454 0.084454 0.46675 -2.458615
2012-06-15 06:27:24 51°20.976 2°51.575 21.4429 0.069853 0.3835 -2.458615
2012-06-15 06:27:30 51°20.996 2°51.572 21.458 0.070265 0.385812 -2.458615
2012-06-15 06:27:35 51°21.012 2°51.57 21.4608 0.069853 0.383446 -2.458615
2012-06-15 06:27:39 51°21.025 2°51.568 21.4534 0.069236 0.379989 -2.458615
2012-06-15 06:27:45 51°21.045 2°51.565 21.4597 0.068003 0.372992 -2.458615
2012-06-15 06:27:50 51°21.062 2°51.563 21.4422 0.068003 0.372992 -2.458615
2012-06-15 06:27:55 51°21.078 2°51.562 21.4707 0.069442 0.381182 -2.458615
2012-06-15 06:27:59 51°21.091 2°51.56 21.4507 0.07993 0.440921 -2.458615
2012-06-15 06:28:05 51°21.111 2°51.558 21.4602 0.071396 0.392287 -2.458615
2012-06-15 06:28:10 51°21.127 2°51.556 21.4688 0.074891 0.412151 -2.458615
2012-06-15 06:28:15 51°21.144 2°51.555 21.4527 0.067694 0.371344 -2.458615
2012-06-15 06:28:19 51°21.157 2°51.554 21.4551 0.067694 0.371344 -2.458615
2012-06-15 06:28:25 51°21.177 2°51.552 21.4646 0.069853 0.383602 -2.458615
2012-06-15 06:28:30 51°21.194 2°51.551 21.4626 0.077462 0.426885 -2.458615
2012-06-15 06:28:35 51°21.21 2°51.551 21.4571 0.071293 0.39171 -2.458615
2012-06-15 06:28:39 51°21.223 2°51.549 21.4479 0.070882 0.389361 -2.458615
2012-06-15 06:28:45 51°21.243 2°51.549 21.4647 0.067797 0.371874 -2.458615
2012-06-15 06:28:50 51°21.26 2°51.548 21.4614 0.067797 0.371874 -2.458615
2012-06-15 06:28:55 51°21.276 2°51.547 21.4682 0.118899 0.666426 -2.458615
2012-06-15 06:28:59 51°21.289 2°51.547 21.4605 0.078284 0.431618 -2.458615
2012-06-15 06:29:05 51°21.309 2°51.547 21.4588 0.084145 0.465082 -2.458615
2012-06-15 06:29:10 51°21.325 2°51.547 21.472 0.077359 0.426267 -2.458615
2012-06-15 06:29:15 51°21.342 2°51.547 21.4627 0.07047 0.38711 -2.458615
2012-06-15 06:29:20 51°21.359 2°51.547 21.4715 0.07047 0.38711 -2.458615
2012-06-15 06:29:25 51°21.375 2°51.547 21.4724 0.079313 0.437529 -2.458615
2012-06-15 06:29:30 51°21.392 2°51.547 21.4768 0.07849 0.432854 -2.458615
2012-06-15 06:29:35 51°21.408 2°51.546 21.475 0.077462 0.426938 -2.458615
2012-06-15 06:29:39 51°21.422 2°51.547 21.4859 0.076125 0.419262 -2.458615
2012-06-15 06:29:45 51°21.441 2°51.547 21.4746 0.069134 0.379453 -2.458615
2012-06-15 06:29:50 51°21.458 2°51.546 21.464 0.069134 0.379453 -2.458615
2012-06-15 06:29:55 51°21.475 2°51.545 21.4772 0.073349 0.403375 -2.458615
2012-06-15 06:29:59 51°21.488 2°51.544 21.4801 0.079107 0.436183 -2.458615
2012-06-15 06:30:05 51°21.508 2°51.542 21.4784 0.063684 0.348612 -2.458615
2012-06-15 06:30:10 51°21.524 2°51.539 21.4754 0.066049 0.36197 -2.458615
2012-06-15 06:30:15 51°21.541 2°51.536 21.4788 0.065638 0.359626 -2.458615
2012-06-15 06:30:19 51°21.554 2°51.533 21.481 0.065638 0.359626 -2.458615
2012-06-15 06:30:24 51°21.571 2°51.53 21.4765 0.074789 0.411522 -2.458615
2012-06-15 06:30:30 51°21.591 2°51.527 21.4691 0.078387 0.432112 -2.458615
2012-06-15 06:30:35 51°21.608 2°51.524 21.4848 0.07849 0.432707 -2.458615
2012-06-15 06:30:39 51°21.621 2°51.522 21.4856 0.067489 0.370134 -2.458615
2012-06-15 06:30:45 51°21.641 2°51.519 21.4706 0.076434 0.420945 -2.458615
2012-06-15 06:30:50 51°21.657 2°51.515 21.4812 0.076434 0.420945 -2.458615
2012-06-15 06:30:55 51°21.674 2°51.513 21.493 0.110056 0.614837 -2.458615
2012-06-15 06:30:59 51°21.687 2°51.511 21.4611 0.078079 0.430374 -2.458615
2012-06-15 06:31:05 51°21.707 2°51.507 21.4819 0.078387 0.432166 -2.458615
2012-06-15 06:31:10 51°21.724 2°51.505 21.4767 0.076228 0.419878 -2.458615
2012-06-15 06:31:15 51°21.741 2°51.503 21.4783 0.069236 0.380124 -2.458615
2012-06-15 06:31:19 51°21.754 2°51.501 21.4862 0.069236 0.380124 -2.458615
2012-06-15 06:31:25 51°21.774 2°51.499 21.4795 0.081266 0.448684 -2.458615
2012-06-15 06:31:30 51°21.79 2°51.496 21.4766 0.076022 0.418743 -2.458615
2012-06-15 06:31:35 51°21.807 2°51.493 21.4807 0.069031 0.378944 -2.458615
2012-06-15 06:31:39 51°21.82 2°51.491 21.4746 0.067489 0.37018 -2.458615
2012-06-15 06:31:45 51°21.84 2°51.489 21.4745 0.076331 0.420412 -2.458615
2012-06-15 06:31:50 51°21.858 2°51.488 21.4773 0.076331 0.420412 -2.458615
2012-06-15 06:31:55 51°21.875 2°51.487 21.4827 0.070882 0.389396 -2.458615
2012-06-15 06:31:59 51°21.888 2°51.486 21.4856 0.071293 0.39171 -2.458615
2012-06-15 06:32:05 51°21.908 2°51.485 21.4781 0.074583 0.41041 -2.458615
2012-06-15 06:32:10 51°21.925 2°51.484 21.4799 0.066152 0.362571 -2.458615
2012-06-15 06:32:15 51°21.942 2°51.483 21.4909 0.072938 0.401051 -2.458615
2012-06-15 06:32:19 51°21.955 2°51.482 21.5014 0.072938 0.401051 -2.458615
2012-06-15 06:32:25 51°21.975 2°51.482 21.4731 0.073452 0.404003 -2.458615
2012-06-15 06:32:30 51°21.992 2°51.481 21.4892 0.083425 0.460965 -2.458615
2012-06-15 06:32:35 51°22.009 2°51.481 21.4948 0.074891 0.412254 -2.458615
2012-06-15 06:32:39 51°22.022 2°51.481 21.4912 0.080444 0.443947 -2.458615
2012-06-15 06:32:44 51°22.039 2°51.48 21.502 0.078593 0.433433 -2.458615
2012-06-15 06:32:50 51°22.059 2°51.48 21.4916 0.078593 0.433433 -2.458615
2012-06-15 06:32:55 51°22.075 2°51.479 21.4886 0.078799 0.434553 -2.458615
2012-06-15 06:32:59 51°22.089 2°51.479 21.4986 0.068208 0.374309 -2.458615
2012-06-15 06:33:04 51°22.105 2°51.477 21.5007 0.064918 0.355635 -2.458615
2012-06-15 06:33:10 51°22.125 2°51.474 21.4968 0.064404 0.352712 -2.458615
2012-06-15 06:33:15 51°22.141 2°51.471 21.5009 0.065843 0.360865 -2.458615
2012-06-15 06:33:19 51°22.154 2°51.469 21.4931 0.065843 0.360865 -2.458615
2012-06-15 06:33:25 51°22.174 2°51.464 21.4872 0.068003 0.373111 -2.458615
2012-06-15 06:33:30 51°22.19 2°51.461 21.4911 0.069545 0.381948 -2.458615
2012-06-15 06:33:35 51°22.206 2°51.457 21.4824 0.070367 0.386643 -2.458615
2012-06-15 06:33:39 51°22.219 2°51.455 21.4845 0.077359 0.426481 -2.458615
2012-06-15 06:33:45 51°22.239 2°51.452 21.4907 0.077565 0.427616 -2.458615
2012-06-15 06:33:50 51°22.256 2°51.449 21.501 0.077565 0.427616 -2.458615
2012-06-15 06:33:55 51°22.272 2°51.447 21.4995 0.074377 0.409371 -2.458615
2012-06-15 06:33:59 51°22.285 2°51.444 21.4863 0.070265 0.385957 -2.458615
2012-06-15 06:34:05 51°22.305 2°51.441 21.4947 0.06646 0.364341 -2.458615
2012-06-15 06:34:10 51°22.321 2°51.437 21.4965 0.077565 0.427425 -2.458615
2012-06-15 06:34:15 51°22.337 2°51.435 21.4917 0.073349 0.403425 -2.458615
2012-06-15 06:34:20 51°22.354 2°51.432 21.1515 0.073349 0.403425 -2.458615
2012-06-15 06:34:25 51°22.37 2°51.43 17.7409 0.063787 0.349242 -2.458615
2012-06-15 06:34:30 51°22.386 2°51.428 16.9557 0.062245 0.340543 -2.458615
2012-06-15 06:34:35 51°22.403 2°51.426 17.0395 0.061422 0.33592 -2.458615
2012-06-15 06:34:39 51°22.416 2°51.425 16.5971 0.06317 0.345785 -2.458615
2012-06-15 06:34:45 51°22.436 2°51.423 16.1876 0.062348 0.341165 -2.458615
2012-06-15 06:34:50 51°22.452 2°51.422 16.0596 0.062348 0.341165 -2.458615
2012-06-15 06:34:55 51°22.468 2°51.421 15.898 0.062965 0.344668 -2.458615
2012-06-15 06:34:59 51°22.481 2°51.419 15.7374 0.063376 0.347013 -2.458615
2012-06-15 06:35:05 51°22.501 2°51.418 15.6454 0.064404 0.352837 -2.458615
2012-06-15 06:35:10 51°22.517 2°51.415 15.5672 0.065638 0.359837 -2.458615
2012-06-15 06:35:15 51°22.534 2°51.413 15.5616 0.065741 0.360437 -2.458615
2012-06-15 06:35:19 51°22.547 2°51.411 15.4818 0.065741 0.360437 -2.458615
2012-06-15 06:35:25 51°22.566 2°51.408 15.4484 0.067077 0.368015 -2.458615
2012-06-15 06:35:30 51°22.583 2°51.406 15.4315 0.066049 0.362208 -2.458615
2012-06-15 06:35:35 51°22.599 2°51.402 15.4154 0.067694 0.371529 -2.458615
2012-06-15 06:35:40 51°22.615 2°51.4 15.3921 0.066872 0.366883 -2.458615
2012-06-15 06:35:44 51°22.628 2°51.398 15.3603 0.068722 0.377377 -2.458615
2012-06-15 06:35:50 51°22.648 2°51.394 15.3708 0.068722 0.377377 -2.458615
2012-06-15 06:35:55 51°22.664 2°51.391 15.3587 0.069031 0.379133 -2.458615
2012-06-15 06:36:00 51°22.681 2°51.389 15.3223 0.069751 0.383224 -2.458615
2012-06-15 06:36:05 51°22.697 2°51.388 15.3338 0.070059 0.384975 -2.458615
2012-06-15 06:36:10 51°22.714 2°51.386 15.2866 0.071807 0.394904 -2.458615
2012-06-15 06:36:15 51°22.73 2°51.385 15.3028 0.073658 0.40544 -2.458615
2012-06-15 06:36:19 51°22.743 2°51.384 15.2861 0.073658 0.40544 -2.458615
2012-06-15 06:36:25 51°22.763 2°51.383 15.2756 0.072938 0.401337 -2.458615
2012-06-15 06:36:30 51°22.78 2°51.382 15.2879 0.073966 0.407182 -2.458615
2012-06-15 06:36:35 51°22.796 2°51.381 15.2639 0.076228 0.420065 -2.458615
2012-06-15 06:36:39 51°22.809 2°51.381 15.2656 0.0752 0.414196 -2.458615
2012-06-15 06:36:45 51°22.829 2°51.378 15.2613 0.075303 0.414774 -2.458615
2012-06-15 06:36:50 51°22.846 2°51.377 15.2448 0.075303 0.414774 -2.458615
2012-06-15 06:36:55 51°22.862 2°51.375 15.2249 0.077462 0.427068 -2.458615
2012-06-15 06:36:59 51°22.875 2°51.373 15.243 0.078182 0.431146 -2.458615
2012-06-15 06:37:05 51°22.895 2°51.369 15.229 0.07849 0.432861 -2.458615
2012-06-15 06:37:10 51°22.911 2°51.366 15.211 0.079518 0.438689 -2.458615
2012-06-15 06:37:15 51°22.928 2°51.363 15.2106 0.081369 0.449216 -2.458615
2012-06-15 06:37:20 51°22.944 2°51.36 15.2127 0.081369 0.449216 -2.458615
2012-06-15 06:37:24 51°22.957 2°51.357 15.2071 0.081266 0.448612 -2.458615
2012-06-15 06:37:30 51°22.977 2°51.355 15.2147 0.082911 0.458037 -2.458615
2012-06-15 06:37:35 51°22.994 2°51.352 15.2 0.087435 0.483979 -2.458615
2012-06-15 06:37:39 51°23.007 2°51.35 15.1961 0.083528 0.461538 -2.458615
2012-06-15 06:37:44 51°23.023 2°51.347 15.1806 0.084762 0.468585 -2.458615
2012-06-15 06:37:50 51°23.042 2°51.344 15.1779 0.084762 0.468585 -2.458615
2012-06-15 06:37:55 51°23.059 2°51.341 15.1661 0.085585 0.473294 -2.458615
2012-06-15 06:37:59 51°23.072 2°51.339 15.1626 0.088155 0.488062 -2.458615
2012-06-15 06:38:05 51°23.091 2°51.335 15.1712 0.090314 0.500497 -2.458615
2012-06-15 06:38:10 51°23.107 2°51.333 15.1711 0.09597 0.533109 -2.458615
2012-06-15 06:38:15 51°23.124 2°51.331 15.1625 0.089286 0.494609 -2.458615
2012-06-15 06:38:20 51°23.14 2°51.33 15.1623 0.089286 0.494609 -2.458615
2012-06-15 06:38:24 51°23.152 2°51.329 15.147 0.094633 0.525421 -2.458615
2012-06-15 06:38:30 51°23.172 2°51.329 15.1312 0.098437 0.54741 -2.458615
2012-06-15 06:38:35 51°23.188 2°51.328 15.1357 0.094016 0.521889 -2.458615
2012-06-15 06:38:40 51°23.204 2°51.328 15.1463 0.094633 0.525477 -2.458615
2012-06-15 06:38:45 51°23.219 2°51.327 15.1448 0.096895 0.538551 -2.458615
2012-06-15 06:38:50 51°23.235 2°51.326 15.1436 0.096895 0.538551 -2.458615
2012-06-15 06:38:55 51°23.251 2°51.325 15.1201 0.096381 0.53559 -2.458615
2012-06-15 06:38:59 51°23.264 2°51.324 15.1174 0.095558 0.530848 -2.458615
2012-06-15 06:39:05 51°23.283 2°51.321 15.1191 0.098026 0.545129 -2.458615
2012-06-15 06:39:10 51°23.299 2°51.319 15.1119 0.097512 0.542176 -2.458615
2012-06-15 06:39:15 51°23.315 2°51.316 15.0974 0.100494 0.559462 -2.458615
2012-06-15 06:39:19 51°23.327 2°51.314 15.0987 0.100494 0.559462 -2.458615
2012-06-15 06:39:25 51°23.346 2°51.311 15.0954 0.100185 0.557716 -2.458615
2012-06-15 06:39:30 51°23.362 2°51.309 15.0891 0.105532 0.588752 -2.458615
2012-06-15 06:39:35 51°23.378 2°51.305 15.0783 0.101419 0.564905 -2.458615
2012-06-15 06:39:39 51°23.391 2°51.303 15.0884 0.107075 0.59776 -2.458615
2012-06-15 06:39:45 51°23.409 2°51.3 15.089 0.103476 0.576864 -2.458615
2012-06-15 06:39:50 51°23.425 2°51.297 15.0751 0.103476 0.576864 -2.458615
2012-06-15 06:39:55 51°23.441 2°51.293 15.0759 0.107589 0.600771 -2.458615
2012-06-15 06:39:59 51°23.453 2°51.29 15.0836 0.108823 0.607951 -2.458615
2012-06-15 06:40:05 51°23.472 2°51.286 15.0873 0.106149 0.592412 -2.458615
2012-06-15 06:40:10 51°23.488 2°51.283 15.0794 0.105532 0.588826 -2.458615
2012-06-15 06:40:15 51°23.504 2°51.28 15.0815 0.110468 0.617543 -2.458615
2012-06-15 06:40:19 51°23.517 2°51.277 15.0691 0.110468 0.617543 -2.458615
2012-06-15 06:40:25 51°23.536 2°51.273 15.08 0.110571 0.618142 -2.458615
2012-06-15 06:40:30 51°23.552 2°51.269 15.0962 0.112113 0.627144 -2.458615
2012-06-15 06:40:35 51°23.568 2°51.266 15.0886 0.111085 0.621149 -2.458615
2012-06-15 06:40:40 51°23.584 2°51.263 15.076 0.115815 0.64875 -2.458615
2012-06-15 06:40:44 51°23.596 2°51.261 15.0729 0.115815 0.64875 -2.458615
2012-06-15 06:40:50 51°23.615 2°51.257 15.0727 0.115815 0.64875 -2.458615
2012-06-15 06:40:55 51°23.631 2°51.254 15.0742 0.113141 0.633141 -2.458615
2012-06-15 06:40:59 51°23.644 2°51.252 15.0826 0.117871 0.660772 -2.458615
2012-06-15 06:41:05 51°23.663 2°51.25 15.0794 0.114992 0.643945 -2.458615
2012-06-15 06:41:10 51°23.679 2°51.249 15.0879 0.125583 0.705964 -2.458615
2012-06-15 06:41:15 51°23.695 2°51.247 15.0792 0.117666 0.659569 -2.458615
2012-06-15 06:41:19 51°23.708 2°51.247 15.0782 0.117666 0.659569 -2.458615
2012-06-15 06:41:25 51°23.727 2°51.246 15.085 0.118797 0.666186 -2.458615
2012-06-15 06:41:30 51°23.743 2°51.246 15.0756 0.122087 0.685455 -2.458615
2012-06-15 06:41:35 51°23.76 2°51.245 15.0703 0.125686 0.706567 -2.458615
2012-06-15 06:41:39 51°23.772 2°51.244 15.0675 0.121367 0.681225 -2.458615
2012-06-15 06:41:45 51°23.792 2°51.243 15.0713 0.123938 0.696308 -2.458615
2012-06-15 06:41:50 51°23.808 2°51.243 15.0831 0.123938 0.696308 -2.458615
2012-06-15 06:41:55 51°23.825 2°51.243 15.0894 0.127126 0.715023 -2.458615
2012-06-15 06:41:59 51°23.837 2°51.244 15.08 0.123321 0.69269 -2.458615
2012-06-15 06:42:05 51°23.857 2°51.243 15.0827 0.128565 0.723483 -2.458615
2012-06-15 06:42:10 51°23.873 2°51.242 15.0847 0.130725 0.736186 -2.458615
2012-06-15 06:42:15 51°23.889 2°51.241 15.0807 0.131959 0.743436 -2.458615
2012-06-15 06:42:19 51°23.902 2°51.24 15.0906 0.131959 0.743436 -2.458615
2012-06-15 06:42:24 51°23.918 2°51.239 15.0773 0.13309 0.750099 -2.458615
2012-06-15 06:42:30 51°23.937 2°51.238 15.0827 0.13237 0.745859 -2.458615
2012-06-15 06:42:35 51°23.954 2°51.236 15.0827 0.137409 0.775569 -2.458615
2012-06-15 06:42:40 51°23.97 2°51.234 15.0814 0.130313 0.733752 -2.458615
2012-06-15 06:42:44 51°23.983 2°51.232 15.0814 0.136278 0.768893 -2.458615
2012-06-15 06:42:50 51°24.003 2°51.23 15.0817 0.136278 0.768893 -2.458615
2012-06-15 06:42:55 51°24.019 2°51.229 15.0839 0.138643 0.782855 -2.458615
2012-06-15 06:42:59 51°24.032 2°51.227 15.0781 0.138026 0.779211 -2.458615
2012-06-15 06:43:05 51°24.051 2°51.226 15.069 0.136175 0.768287 -2.458615
2012-06-15 06:43:10 51°24.067 2°51.225 15.0723 0.139979 0.790753 -2.458615
2012-06-15 06:43:15 51°24.084 2°51.224 15.0753 0.136792 0.771913 -2.458615
2012-06-15 06:43:19 51°24.096 2°51.223 15.0739 0.136792 0.771913 -2.458615
2012-06-15 06:43:25 51°24.116 2°51.22 15.0754 0.13854 0.782234 -2.458615
2012-06-15 06:43:30 51°24.132 2°51.218 15.0723 0.146766 0.830907 -2.458615
2012-06-15 06:43:35 51°24.148 2°51.217 15.072 0.146355 0.828469 -2.458615
2012-06-15 06:43:39 51°24.161 2°51.216 15.0647 0.14327 0.810199 -2.458615
2012-06-15 06:43:45 51°24.181 2°51.215 15.0661 0.150982 0.855918 -2.458615
2012-06-15 06:43:50 51°24.197 2°51.214 15.065 0.150982 0.855918 -2.458615